Animals.
Animaniacs
No downloads here. Only news and history.

PRE DATA

Datetime Release
2017-12-28 00:00:20 Biber-Baroque_Splendor_Missa_Salisburgensis-CD-FLAC-2015-EiTheL
2017-12-28 00:02:23 Mix_Mission_2017-Sven_Schaller_(SSL)-SAT-27-12-2017-1KING
2017-12-28 00:02:53 Home.And.Away.S30E217E218.720p.HDTV.x264-FiHTV
2017-12-28 00:04:31 Anime-Gataris.E12.FiNAL.SUBFRENCH.720p.HDTV.x264-AMB3R
2017-12-28 00:05:06 Home.And.Away.S30E217E218.HDTV.x264-FiHTV
2017-12-28 00:10:33 The.Frankenstein.Chronicles.S02E01.720p.HDTV.x264-SQUEAK
2017-12-28 00:11:36 The.Frankenstein.Chronicles.S02E01.HDTV.x264-SQUEAK
2017-12-28 00:12:37 The.Frankenstein.Chronicles.S02E02.720p.HDTV.x264-SQUEAK
2017-12-28 00:13:40 The.Frankenstein.Chronicles.S02E02.HDTV.x264-SQUEAK
2017-12-28 00:15:20 The.Halcyon.S01E01.FRENCH.HDTV.x264-AMB3R
2017-12-28 00:16:08 Home.And.Away.S30E219.HDTV.x264-FiHTV
2017-12-28 00:17:48 Anton_Dhouran-The_Myth_of_Tarae-(CH030A)-WEB-2017-ENSLAVE
2017-12-28 00:18:07 3_Wishes-Six-WEB-2017-ENTiTLED
2017-12-28 00:18:18 Alex_Wurman-Just_Getting_Started_(Original_Motion_Picture_Soundtrack)-WEB-2017-ENTiTLED
2017-12-28 00:18:23 Manhunt.Unabomber.S01E01.BDRip.X264-REWARD
2017-12-28 00:18:30 Atlas_Ahead-Homecoming-WEB-2017-ENTiTLED
2017-12-28 00:18:41 Day_Six-Solitary_League-WEB-2017-ENTiTLED
2017-12-28 00:18:52 Sean_Woolstenhulme-A_Shameful_Display-WEB-2017-ENTiTLED
2017-12-28 00:18:56 Manhunt.Unabomber.S01E02.BDRip.X264-REWARD
2017-12-28 00:19:03 Stone_Clover-Proper_Villains-WEB-2015-ENTiTLED
2017-12-28 00:19:15 VA-Mr_Roosevelt_(Original_Motion_Picture_Soundtrack)-WEB-2017-ENTiTLED
2017-12-28 00:19:28 Manhunt.Unabomber.S01E03.BDRip.X264-REWARD
2017-12-28 00:19:59 Manhunt.Unabomber.S01E04.BDRip.X264-REWARD
2017-12-28 00:20:32 Manhunt.Unabomber.S01E05.BDRip.X264-REWARD
2017-12-28 00:21:37 Manhunt.Unabomber.S01E07.BDRip.X264-REWARD
2017-12-28 00:24:18 Manhunt.Unabomber.S01E06.BDRip.X264-REWARD
2017-12-28 00:24:42 Manhunt.Unabomber.S01E08.BDRip.X264-REWARD
2017-12-28 00:33:17 The.Halcyon.S01E02.FRENCH.720p.HDTV.x264-SH0W
2017-12-28 00:35:03 VA-Bolero_Mix_18-3CD-FLAC-2001-EiTheL
2017-12-28 00:46:02 Hovercraft_Hammerfist-Greed-WEB-2017-ENTiTLED
2017-12-28 00:46:13 Icon-i2-WEB-2017-ENTiTLED
2017-12-28 00:46:25 King_Goat-Conduit_(Extended_Edition)-BONUS_TRACKS-WEB-2016-ENTiTLED
2017-12-28 00:52:32 VA-Rock_Down_Asylgesetz-Auslaendergesetz_Sampler-2CD-CH-2006-NOiR
2017-12-28 00:54:35 Choirs-West_End-WEB-2017-ENTiTLED
2017-12-28 00:54:45 Dave_Porter-The_Disaster_Artist_Original_Motion_Picture_Soundtrack-WEB-2017-ENTiTLED
2017-12-28 00:54:55 Guillaume_Roussel-HhhH-The_Man_With_The_Iron_Heart_(Original_Motion_Picture_Soundtrack)-WEB-2017-ENTiTLED
2017-12-28 00:55:07 Psyence_Fiction-Spy_vs_Spy-(TEN011)-WEB-2015-ENTiTLED
2017-12-28 00:55:17 Silent_Runners-Silent_Runners-EP-WEB-2015-ENTiTLED
2017-12-28 00:55:30 Silent_Runners-The_Directory-WEB-2017-ENTiTLED
2017-12-28 00:55:40 VA-Lazy_Days-WEB-2017-ENTiTLED
2017-12-28 00:56:03 ADHD-ADHD_6-2016-NOiR
2017-12-28 00:59:31 Steelpreacher-Drinking_with_the_Devil-WEB-2017-ENTiTLED
2017-12-28 00:59:55 Knine-Hibiscus_Way-WEB-2017-ENRAGED
2017-12-28 01:00:06 Knine-Regardless-WEB-2010-ENRAGED
2017-12-28 01:00:17 Knine-Theater_of_the_Mind-WEB-2017-ENRAGED
2017-12-28 01:00:28 Knine-UnderDogg-WEB-2007-ENRAGED
2017-12-28 01:00:44 ACT_Family_Band-The_Jubilee_Concerts-2017-NOiR
2017-12-28 01:06:03 VA-Clasicos_De_La_Fiesta-3CD-FLAC-2003-EiTheL
2017-12-28 01:08:06 Sindjelici.S01E03.SERBiAN.PDTV.x264-RADiOACTiVE
2017-12-28 01:08:10 VA-DirtyBeauty_One_Year_Anniversary-WEB-2016-GCP_INT
2017-12-28 01:08:28 VA-DirtyBeauty_Two_Year_Anniversary-WEB-2017-GCP_INT
2017-12-28 01:08:45 Che_Aimee_Dorval-Between_the_Walls_and_the_Window-WEB-2017-ENTiTLED
2017-12-28 01:08:56 Dirty_Dave_Osti-Burning_Down_the_Dirtshack-WEB-2011-ENTiTLED
2017-12-28 01:09:07 Dirty_Dave_Osti-Rare_Tracks-WEB-2017-ENTiTLED
2017-12-28 01:09:18 Dreadnought-A_Wake_in_Sacred_Waves-WEB-2017-ENTiTLED
2017-12-28 01:09:30 Jon_Moon-Trust-WEB-2017-ENTiTLED
2017-12-28 01:09:40 Smoking_Frog-Osrobbanas-WEB-HU-2017-ENTiTLED
2017-12-28 01:09:51 Within_Temptation-An_Acoustic_Night_at_the_Theatre_(Live)-WEB-2009-ENTiTLED_iNT
2017-12-28 01:13:48 The.Frankenstein.Chronicles.S02E01.GERMAN.DL.1080p.HDTV.h264-WiSHTV
2017-12-28 01:15:42 The.Halcyon.S01E02.FRENCH.HDTV.x264-AMB3R
2017-12-28 01:15:57 Peaky.Blinders.S04E04.REPACK.FRENCH.WEBRip.x264-AMB3R
2017-12-28 01:16:19 Peaky.Blinders.S04E06.FiNAL.FRENCH.WEBRip.x264-AMB3R
2017-12-28 01:17:13 Shireen-Matriarch-2017-AMOK
2017-12-28 01:17:22 Peaky.Blinders.S04E05.REPACK.FRENCH.WEBRip.x264-AMB3R
2017-12-28 01:18:58 Jasper_vant_Hof-Jazz_Because-4CD-Limited_Edition-2017-NOiR
2017-12-28 01:20:13 Shireen-Matriarch-CD-FLAC-2017-AMOK
2017-12-28 01:21:38 The.Frankenstein.Chronicles.S02E01.GERMAN.720p.HDTV.x264-WiSHTV
2017-12-28 01:23:43 Chromatics-Kill_For_Love_(Deluxe)-BONUS_TRACKS-WEB-2017-ENTiTLED
2017-12-28 01:23:53 Moderate_Rebels-The_Sound_of_Security-WEB-2017-ENTiTLED
2017-12-28 01:24:04 Serj_Tankian-Furious_(Original_Motion_Picture_Soundtrack)-WEB-2017-ENTiTLED
2017-12-28 01:24:11 Tom_Ellis-The_Colour_Red-(MINIBAR045)-WEB-2017-ENSLAVE
2017-12-28 01:24:15 The_Devil_Himself-In_the_Name_of_God-WEB-2017-ENTiTLED
2017-12-28 01:24:27 Waterflame-Surge-WEB-2017-ENTiTLED
2017-12-28 01:33:00 Peaky.Blinders.S04E04.FRENCH.720p.WEB.x264-CiELOS
2017-12-28 01:33:08 Peaky.Blinders.S04E04.MULTi.1080p.WEB.x264-CiELOS
2017-12-28 01:33:22 Peaky.Blinders.S04E05.FRENCH.720p.WEB.x264-CiELOS
2017-12-28 01:33:28 Peaky.Blinders.S04E05.MULTi.1080p.WEB.x264-CiELOS
2017-12-28 01:33:34 Peaky.Blinders.S04E06.FiNAL.FRENCH.720p.WEB.x264-CiELOS
2017-12-28 01:33:40 Peaky.Blinders.S04E06.FiNAL.MULTi.1080p.WEB.x264-CiELOS
2017-12-28 01:33:46 Billy_Cullum-Lonely_Hearts_Club-WEB-2017-ENTiTLED
2017-12-28 01:33:56 Pandit_Pran_Nath-The_Raga_Cycle_Palace_Theatre_Paris_1972_Volume_II-WEB-IN-2017-ENTiTLED
2017-12-28 01:34:07 VA-Farewell_Alligator_Man_a_Tribute_to_the_Music_of_Jimmy_C_Newman-WEB-2017-ENTiTLED
2017-12-28 01:34:46 Big_Chuk-Gravel_Road-WEB-2014-ESG
2017-12-28 01:35:01 Big_Chuk-Little_Missouri-WEB-2015-ESG
2017-12-28 01:35:19 Moccasin_Creek-Allowed_To_Be_Loud-WEB-2011-ESG
2017-12-28 01:35:31 Moccasin_Creek-Belt_Buckles_And_Brass_Knuckles-WEB-2013-ESG
2017-12-28 01:35:47 Moccasin_Creek-Born_Ready-WEB-2012-ESG
2017-12-28 01:36:01 Moccasin_Creek-Game_Over-WEB-2016-ESG
2017-12-28 01:36:57 Moccasin_Creek-Fresh_Batch-WEB-2014-ESG
2017-12-28 01:37:02 DJ_TC-Return_of_the_Killa_Hoe-WEB-2017-ENRAGED
2017-12-28 01:39:24 The_National_Youth_Pipe_Band_of_Scotland-Thunderstruck-WEB-2017-ENTiTLED
2017-12-28 01:39:34 The_Young_Rochelles-The_Young_Rochelles-WEB-2017-ENTiTLED
2017-12-28 01:44:33 The.Frankenstein.Chronicles.S02E01.GERMAN.HDTVRiP.x264-WiSHTV
2017-12-28 01:45:14 Istine.I.Lazi.S01E54.SERBiAN.PDTV.x264-RADiOACTiVE
2017-12-28 01:52:39 VA-Dance_Hits_2004-4CD-FLAC-2004-EiTheL
2017-12-28 01:56:43 The.Adventures.of.Puss.in.Boots.S01E01.720p.WEB.x264-SKGTV
2017-12-28 01:57:00 The.Adventures.of.Puss.in.Boots.S01E02.720p.WEB.x264-SKGTV
2017-12-28 01:57:54 Animal.Kingdom.S02E01.SPANiSH.1080p.HDTV.x264-FERiCE
2017-12-28 01:57:57 I4NI-Team_Strong-WEB-2013-ESG
2017-12-28 01:58:08 I4NI-Muscle_Car-WEB-2016-ESG
2017-12-28 01:58:15 The.Adventures.of.Puss.in.Boots.S01E03.720p.WEB.x264-SKGTV
2017-12-28 01:59:05 Animal.Kingdom.S02E01.SPANiSH.720p.HDTV.x264-FERiCE
2017-12-28 01:59:08 The.Adventures.of.Puss.in.Boots.S01E04.720p.WEB.x264-SKGTV
2017-12-28 01:59:53 The.Adventures.of.Puss.in.Boots.S01E05.720p.WEB.x264-SKGTV
2017-12-28 02:00:23 The.Adventures.of.Puss.in.Boots.S01E06.720p.WEB.x264-SKGTV
2017-12-28 02:00:46 The.Adventures.of.Puss.in.Boots.S01E08.720p.WEB.x264-SKGTV
2017-12-28 02:01:01 The.Adventures.of.Puss.in.Boots.S01E07.720p.WEB.x264-SKGTV
2017-12-28 02:01:02 The.Adventures.of.Puss.in.Boots.S01E01.1080p.WEB.x264-SKGTV
2017-12-28 02:01:48 The.Adventures.of.Puss.in.Boots.S01E09.720p.WEB.x264-SKGTV
2017-12-28 02:02:09 The.Adventures.of.Puss.in.Boots.S01E10.720p.WEB.x264-SKGTV
2017-12-28 02:02:21 The.Adventures.of.Puss.in.Boots.S01E02.1080p.WEB.x264-SKGTV
2017-12-28 02:02:39 The.Adventures.of.Puss.in.Boots.S01E03.1080p.WEB.x264-SKGTV
2017-12-28 02:03:13 The.Adventures.of.Puss.in.Boots.S01E11.720p.WEB.x264-SKGTV
2017-12-28 02:03:27 The.Adventures.of.Puss.in.Boots.S01E12.720p.WEB.x264-SKGTV
2017-12-28 02:03:57 The.Adventures.of.Puss.in.Boots.S01E14.720p.WEB.x264-SKGTV
2017-12-28 02:03:59 The.Adventures.of.Puss.in.Boots.S01E13.720p.WEB.x264-SKGTV
2017-12-28 02:04:24 The.Adventures.of.Puss.in.Boots.S01E04.1080p.WEB.x264-SKGTV
2017-12-28 02:04:56 The.Adventures.of.Puss.in.Boots.S01E05.1080p.WEB.x264-SKGTV
2017-12-28 02:05:08 The.Adventures.of.Puss.in.Boots.S01E06.1080p.WEB.x264-SKGTV
2017-12-28 02:05:39 The.Adventures.of.Puss.in.Boots.S01E07.1080p.WEB.x264-SKGTV
2017-12-28 02:05:42 The.Adventures.of.Puss.in.Boots.S01E15.720p.WEB.x264-SKGTV
2017-12-28 02:05:47 The.Adventures.of.Puss.in.Boots.S01E08.1080p.WEB.x264-SKGTV
2017-12-28 02:06:27 The.Adventures.of.Puss.in.Boots.S01E09.1080p.WEB.x264-SKGTV
2017-12-28 02:06:51 The.Adventures.of.Puss.in.Boots.S01E10.1080p.WEB.x264-SKGTV
2017-12-28 02:07:24 The.Adventures.of.Puss.in.Boots.S01E11.1080p.WEB.x264-SKGTV
2017-12-28 02:07:35 The.Adventures.of.Puss.in.Boots.S01E12.1080p.WEB.x264-SKGTV
2017-12-28 02:08:02 The.Adventures.of.Puss.in.Boots.S01E13.1080p.WEB.x264-SKGTV
2017-12-28 02:08:07 The.Adventures.of.Puss.in.Boots.S01E14.1080p.WEB.x264-SKGTV
2017-12-28 02:08:43 The.Adventures.of.Puss.in.Boots.S01E15.1080p.WEB.x264-SKGTV
2017-12-28 02:08:52 The.Adventures.of.Puss.in.Boots.S02E01.720p.WEB.x264-SKGTV
2017-12-28 02:09:19 The.Adventures.of.Puss.in.Boots.S02E02.720p.WEB.x264-SKGTV
2017-12-28 02:09:29 The.Adventures.of.Puss.in.Boots.S02E03.720p.WEB.x264-SKGTV
2017-12-28 02:09:58 The.Adventures.of.Puss.in.Boots.S02E04.720p.WEB.x264-SKGTV
2017-12-28 02:10:27 The.Adventures.of.Puss.in.Boots.S02E05.720p.WEB.x264-SKGTV
2017-12-28 02:10:54 The.Adventures.of.Puss.in.Boots.S02E01.1080p.WEB.x264-SKGTV
2017-12-28 02:11:08 The.Adventures.of.Puss.in.Boots.S02E06.720p.WEB.x264-SKGTV
2017-12-28 02:11:45 The.Adventures.of.Puss.in.Boots.S02E07.720p.WEB.x264-SKGTV
2017-12-28 02:12:02 The.Adventures.of.Puss.in.Boots.S02E02.1080p.WEB.x264-SKGTV
2017-12-28 02:12:18 The.Adventures.of.Puss.in.Boots.S02E03.1080p.WEB.x264-SKGTV
2017-12-28 02:12:36 The.Adventures.of.Puss.in.Boots.S02E04.1080p.WEB.x264-SKGTV
2017-12-28 02:12:52 The.Adventures.of.Puss.in.Boots.S02E05.1080p.WEB.x264-SKGTV
2017-12-28 02:13:08 Arogant_Prick-The_Wolf_Of_Northeast_(Intro)-(Single)-WEB-2017-ESG
2017-12-28 02:13:24 The.Adventures.of.Puss.in.Boots.S02E08.720p.WEB.x264-SKGTV
2017-12-28 02:13:32 The.Adventures.of.Puss.in.Boots.S02E09.720p.WEB.x264-SKGTV
2017-12-28 02:13:42 Tazz_Jones-Finally_Focused-WEB-2016-ESG
2017-12-28 02:14:02 Woody_Beast-Genesis-WEB-2016-ESG
2017-12-28 02:14:16 Woody_Beast-Top_Notch-(Single)-WEB-2017-ESG
2017-12-28 02:14:25 American.Made.DVDR-iGNiTiON
2017-12-28 02:14:45 The.Adventures.of.Puss.in.Boots.S02E07.1080p.WEB.x264-SKGTV
2017-12-28 02:14:50 The.Adventures.of.Puss.in.Boots.S02E10.720p.WEB.x264-SKGTV
2017-12-28 02:15:30 The.Adventures.of.Puss.in.Boots.S02E11.720p.WEB.x264-SKGTV
2017-12-28 02:16:13 The.Adventures.of.Puss.in.Boots.S02E08.1080p.WEB.x264-SKGTV
2017-12-28 02:16:27 The.Adventures.of.Puss.in.Boots.S02E09.1080p.WEB.x264-SKGTV
2017-12-28 02:16:59 The.Adventures.of.Puss.in.Boots.S02E11.1080p.WEB.x264-SKGTV
2017-12-28 02:17:13 The.Adventures.of.Puss.in.Boots.S02E06.1080p.WEB.x264-SKGTV
2017-12-28 02:17:28 The.Adventures.of.Puss.in.Boots.S01E08.WEB.x264-SKGTV
2017-12-28 02:17:36 The.Adventures.of.Puss.in.Boots.S01E01.WEB.x264-SKGTV
2017-12-28 02:17:44 The.Adventures.of.Puss.in.Boots.S01E02.WEB.x264-SKGTV
2017-12-28 02:17:56 The.Adventures.of.Puss.in.Boots.S01E03.WEB.x264-SKGTV
2017-12-28 02:18:01 The.Adventures.of.Puss.in.Boots.S01E05.WEB.x264-SKGTV
2017-12-28 02:18:05 The.Adventures.of.Puss.in.Boots.S01E06.WEB.x264-SKGTV
2017-12-28 02:18:09 The.Adventures.of.Puss.in.Boots.S01E07.WEB.x264-SKGTV
2017-12-28 02:18:15 The.Adventures.of.Puss.in.Boots.S01E09.WEB.x264-SKGTV
2017-12-28 02:18:32 The.Adventures.of.Puss.in.Boots.S01E10.WEB.x264-SKGTV
2017-12-28 02:18:40 The.Adventures.of.Puss.in.Boots.S01E11.WEB.x264-SKGTV
2017-12-28 02:18:49 The.Adventures.of.Puss.in.Boots.S01E12.WEB.x264-SKGTV
2017-12-28 02:19:00 The.Adventures.of.Puss.in.Boots.S01E13.WEB.x264-SKGTV
2017-12-28 02:19:12 The.Adventures.of.Puss.in.Boots.S01E14.WEB.x264-SKGTV
2017-12-28 02:19:21 The.Adventures.of.Puss.in.Boots.S01E15.WEB.x264-SKGTV
2017-12-28 02:19:26 The.Adventures.of.Puss.in.Boots.S01E04.WEB.x264-SKGTV
2017-12-28 02:19:58 The.Adventures.of.Puss.in.Boots.S02E05.WEB.x264-SKGTV
2017-12-28 02:20:32 The.Adventures.of.Puss.in.Boots.S02E10.WEB.x264-SKGTV
2017-12-28 02:21:17 The.Adventures.of.Puss.in.Boots.S02E01.WEB.x264-SKGTV
2017-12-28 02:21:19 The.Adventures.of.Puss.in.Boots.S02E02.WEB.x264-SKGTV
2017-12-28 02:21:21 The.Adventures.of.Puss.in.Boots.S02E03.WEB.x264-SKGTV
2017-12-28 02:21:29 The.Adventures.of.Puss.in.Boots.S02E04.WEB.x264-SKGTV
2017-12-28 02:21:41 The.Adventures.of.Puss.in.Boots.S02E06.WEB.x264-SKGTV
2017-12-28 02:21:51 The.Adventures.of.Puss.in.Boots.S02E07.WEB.x264-SKGTV
2017-12-28 02:21:59 The.Adventures.of.Puss.in.Boots.S02E08.WEB.x264-SKGTV
2017-12-28 02:22:08 The.Adventures.of.Puss.in.Boots.S02E09.WEB.x264-SKGTV
2017-12-28 02:22:26 The.Adventures.of.Puss.in.Boots.S02E11.WEB.x264-SKGTV
2017-12-28 02:26:27 Abstract-Not_Tha_Norm-WEB-2017-ESG
2017-12-28 02:26:57 Abstract-Reasons_Feat_Mickey_Shiloh-(Single)-WEB-2016-ESG
2017-12-28 02:29:31 Abstract-Nobody_Remix_Feat_Yonas_Roze-(Single)-WEB-2016-ESG
2017-12-28 02:30:43 Abstract-Better_Place_To_Live_Feat_Roze-(Single)-WEB-2017-ESG
2017-12-28 02:31:41 Abstract-In_Love_Feat_Glenn_Travis-(Single)-WEB-2017-ESG
2017-12-28 02:32:49 TB4L-Street_Nigga_Feat_Thraxx-(Single)-WEB-2016-ESG
2017-12-28 02:33:22 Young_Mark-Faded-(Single)-WEB-2017-ESG
2017-12-28 02:33:41 Young_Mark-How_It_Goes_Feat._Lil_Co-(Single)-WEB-2016-ESG
2017-12-28 02:33:57 Young_Mark-Whats_Up_With_You-(Single)-WEB-2016-ESG
2017-12-28 02:34:11 Yung_Mark-To_Be_Known-WEB-2016-ESG
2017-12-28 02:46:32 TMZ.on.TV.2017.12.22.WEB.x264-TBS
2017-12-28 02:46:35 TMZ.on.TV.2017.12.22.720p.WEB.x264-TBS
2017-12-28 02:49:08 TeenFidelity.E298.JoJo.Kiss.Sister.Issues.XXX.2160p.MP4-KTR
2017-12-28 02:56:52 Top.Secret.Swimming.Holes.S03E09.Hawaiis.Secret.Beach.720p.HDTV.x264-W4F
2017-12-28 02:57:08 Top.Secret.Swimming.Holes.S03E09.Hawaiis.Secret.Beach.HDTV.x264-W4F
2017-12-28 02:57:45 Self_Provoked_And_DJ_Hoppa-Fat_Bag_Of_Weed-(Single)-WEB-2013-ESG
2017-12-28 03:00:46 Mini_Thin-Break_Your_Face-(Single)-WEB-2017-ESG
2017-12-28 03:02:04 Mini_Thin-City_Bitch-(Single)-WEB-2014-ESG
2017-12-28 03:02:05 Mini_Thin-Its_Your_Time_(Domestic_Violence)-(Single)-WEB-2014-ESG
2017-12-28 03:06:31 The.Foreigner.2017.720p.BluRay.x264-DRONES
2017-12-28 03:06:51 The.Librarians.US.S04E05.720p.HDTV.x264-KILLERS
2017-12-28 03:07:08 The.Librarians.US.S04E05.HDTV.x264-KILLERS
2017-12-28 03:10:01 CzechMassage.17.12.27.Massage.379.XXX.1080p.MP4-KTR
2017-12-28 03:10:53 The.Librarians.US.S04E06.iNTERNAL.720p.WEB.h264-BAMBOOZLE
2017-12-28 03:11:14 The.Foreigner.2017.BDRip.x264-DRONES
2017-12-28 03:11:16 Tiny4K.17.12.28.Anastasia.Knight.Slam.Dunk.Hookup.XXX.1080p.MP4-KTR
2017-12-28 03:11:21 Tiny4K.1712.28.Anastasia.Knight.Slam.Dunnk.Hookup.XXX.1080p.MP4-KTR
2017-12-28 03:13:23 Tiny4K.17.12.28.Anastasia.Knight.Slam.Dunk.Hookup.XXX.2160p.MP4-KTR
2017-12-28 03:14:52 WankItNow.17.12.28.Eva.Guaranteed.Results.XXX.1080p.MP4-KTR
2017-12-28 03:16:08 WankItNow.17.12.28.Eva.Guaranteed.Results.XXX.2160p.MP4-KTR
2017-12-28 03:21:45 Bang.Glamkore.17.12.28.Nicole.Love.XXX.1080p.MP4-KTR
2017-12-28 03:24:30 Bang.Glamkore.17.12.28.Nicole.Love.XXX.2160p.MP4-KTR
2017-12-28 03:25:36 OnlyBlowJob.17.12.28.Claudia.Macc.XXX.1080p.MP4-KTR
2017-12-28 03:27:19 Animal.Kingdom.S02E02.SPANiSH.1080p.HDTV.x264-FERiCE
2017-12-28 03:27:30 OnlyBlowJob.17.12.28.Claudia.Macc.XXX.2160p.MP4-KTR
2017-12-28 03:28:35 Animal.Kingdom.S02E02.SPANiSH.HDTV.x264-FERiCE
2017-12-28 03:40:32 Berlin.Tag.und.Nacht.S20E07.German.DVDRiP.x264-CiA
2017-12-28 03:40:49 Berlin.Tag.und.Nacht.S20E08.German.DVDRiP.x264-CiA
2017-12-28 03:40:59 Marshall.2017.720p.BluRay.x264-GECKOS
2017-12-28 03:41:08 Berlin.Tag.und.Nacht.S20E09.German.DVDRiP.x264-CiA
2017-12-28 03:41:26 Berlin.Tag.und.Nacht.S20E10.German.DVDRiP.x264-CiA
2017-12-28 03:50:47 The.Librarians.US.S04E06.720p.WEBRip.x264-TBS
2017-12-28 03:51:19 DorcelClub.17.12.27.The.Hot.Samia.Duarte.XXX.1080p.MP4-KTR
2017-12-28 03:53:11 The.Librarians.US.S04E06.WEBRip.x264-TBS
2017-12-28 03:53:41 FamilyStrokes.17.12.28.Anastasia.Knight.And.Tucker.Stevens.XXX.1080p.MP4-KTR
2017-12-28 03:56:32 FuckingOffice.17.12.28.Luca.Bella.CZECH.XXX.2160p.MP4-KTR
2017-12-28 03:57:40 PornMegaLoad.17.12.27.Christina.Sapphire.Even.Idiots.Get.The.Ass.XXX.1080p.MP4-KTR
2017-12-28 03:58:46 PornMegaLoad.17.12.27.Vienna.Rose.Repaying.Her.Ride.XXX.1080p.MP4-KTR
2017-12-28 04:00:22 SinfulXXX.17.12.28.Nikky.Dream.XXX.1080p.MP4-KTR
2017-12-28 04:02:14 Vikings.S05E06.720p.HDTV.x264-KILLERS
2017-12-28 04:02:43 Vikings.S05E06.HDTV.x264-KILLERS
2017-12-28 04:03:46 The.Librarians.US.S04E06.720p.HDTV.x264-KILLERS
2017-12-28 04:04:25 PortaGloryhole.17.12.27.Nikki.Sparks.Interview.XXX.1080p.MP4-KTR
2017-12-28 04:05:25 The.Librarians.US.S04E06.HDTV.x264-KILLERS
2017-12-28 04:05:30 RealAgent.17.12.26.Elle.Rose.Solo.Orgasm.XXX.1080p.MP4-KTR
2017-12-28 04:05:33 Marshall.2017.BDRip.x264-GECKOS
2017-12-28 04:06:23 RealAgent.17.12.26.Elle.Rose.Solo.Orgasm.XXX.2160p.MP4-KTR
2017-12-28 04:07:28 RealAgent.17.12.27.Kira.Queen.And.Francys.Belle.Christmas.Pornstar.Four-Way.XXX.1080p.MP4-KTR
2017-12-28 04:09:03 RealAgent.17.12.27.Kira.Queen.And.Francys.Belle.Christmas.Pornstar.Four-Way.XXX.2160p.MP4-KTR
2017-12-28 04:18:07 QuebecProductions.17.02.10.Jackie.Moore.FRENCH.XXX.1080p.MP4-KTR
2017-12-28 04:19:23 QuebecProductions.17.02.17.Heidi.Van.Horny.FRENCH.XXX.1080p.MP4-KTR
2017-12-28 04:20:29 QuebecProductions.17.02.23.Vanessa.Gold.And.Melissa.Gold.FRENCH.XXX.1080p.MP4-KTR
2017-12-28 04:21:40 QuebecProductions.17.02.24.Violet.Revolver.FRENCH.XXX.1080p.MP4-KTR
2017-12-28 04:22:51 QuebecProductions.17.03.03.Roxy.Lane.And.Shana.Lane.FRENCH.XXX.1080p.MP4-KTR
2017-12-28 04:30:39 Moomins.on.the.Riviera.2014.INTERNAL.DUBBED.HDTV.x264-CREED
2017-12-28 04:30:48 Moomins.on.the.Riviera.2014.DUBBED.720p.HDTV.x264-CREED
2017-12-28 04:30:54 Moomins.on.the.Riviera.2014.DUBBED.1080p.HDTV.x264-CREED
2017-12-28 04:31:04 Doodlebugs.S01E02.HDTV.x264-CREED
2017-12-28 04:31:11 Doodlebugs.S01E02.720p.HDTV.x264-CREED
2017-12-28 04:31:19 A.Question.of.Sport.S47E16.Premier.League.Special.HDTV.x264-CREED
2017-12-28 04:31:25 A.Question.of.Sport.S47E16.Premier.League.Special.720p.HDTV.x264-CREED
2017-12-28 04:46:12 The.Foreigner.2017.1080p.BluRay.x264-DRONES
2017-12-28 05:01:37 Happy.S01E04.720p.HDTV.x264-KILLERS
2017-12-28 05:02:20 Knightfall.S01E04.720p.HDTV.x264-KILLERS
2017-12-28 05:02:36 Knightfall.S01E04.HDTV.x264-KILLERS
2017-12-28 05:06:55 Happy.S01E04.HDTV.x264-KILLERS
2017-12-28 05:21:56 Chris_Brown-Heartbreak_On_A_Full_Moon_Deluxe_Edition-Cuffing_Season_12_Days_Of_Christmas-(Proper)-WEB-2017-ESG
2017-12-28 05:34:47 Expedition.Unknown.S04E01.Viking.Secrets.iNTERNAL.720p.HDTV.x264-DHD
2017-12-28 05:39:07 Most.Expensivest.S01E07.WEB.x264-TBS
2017-12-28 05:39:23 Most.Expensivest.S01E07.1080p.WEB.x264-TBS
2017-12-28 05:40:32 Most.Expensivest.S01E07.720p.WEB.x264-TBS
2017-12-28 05:51:28 TeenyBlack.17.12.25.Loni.Legend.XXX.1080p.MP4-KTR
2017-12-28 05:54:16 The.Librarians.US.S04E06.1080p.WEBRip.x264-TBS
2017-12-28 05:57:21 Expedition.Unknown.S04E01.Viking.Secrets.720p.WEB.h264-DHD
2017-12-28 06:02:19 BurningAngel.17.12.28.Gina.Valentina.XXX.1080p.MP4-KTR
2017-12-28 06:03:53 DarkX.17.12.28.Abella.Danger.And.Vienna.Black.Tell.Me.Whos.Your.Favorite.XXX.1080p.MP4-KTR
2017-12-28 06:04:27 Cosmid.net_17.12.28.Melissa.Dangerous.Melissa.Ds.Tub.XXX.iMAGESET-YAPG
2017-12-28 06:05:45 GirlsWay.17.12.28.Penny.Pax.Violet.Monroe.Melissa.Moore.And.Aaliyah.Love.Gangbang.Bachelorette.XXX.1080p.MP4-KTR
2017-12-28 06:06:41 SweetheartVideo.17.12.28.Casey.Calvert.And.Nina.Elle.Over-The-Top.Orgasms.XXX.1080p.MP4-KTR
2017-12-28 06:08:42 You.Are.Wanted.S01D02.COMPLETE.UHD.BLURAY-SharpHD
2017-12-28 06:09:57 BigButtsLikeItBig.17.12.28.Angela.White.Up.To.Code.And.Up.Her.Ass.XXX.1080p.MP4-KTR
2017-12-28 06:11:18 BrazzersExxtra.17.12.28.Kali.Roses.Smoke.Em.Out.XXX.1080p.MP4-KTR
2017-12-28 06:12:35 ImmoralLive.17.12.28.Aysha.XXX.1080p.MP4-KTR
2017-12-28 06:13:16 OnlyTeenBlowJobs.17.12.28.Gracie.Green.XXX.1080p.MP4-KTR
2017-12-28 06:18:53 SimplyAnal.17.12.28.Lovenia.Lux.Anal.Apologies.XXX.1080p.MP4-KTR
2017-12-28 06:21:36 SimplyAnal.17.12.28.Lovenia.Lux.Anal.Apologies.XXX.2160p.MP4-KTR
2017-12-28 06:48:10 ATKGirlfriends.17.12.28.Olivia.Nova.XXX.1080p.MP4-KTR
2017-12-28 06:50:41 ATKGirlfriends.17.12.28.Olivia.Nova.XXX.2160p.MP4-KTR
2017-12-28 06:52:39 ATKGirlfriends.17.12.28.Sami.Parker.XXX.1080p.MP4-KTR
2017-12-28 07:07:13 WowPorn.17.12.28.Aislin.And.Eveline.Dellai.Be.My.Slave.XXX.1080p.MP4-KTR
2017-12-28 07:09:51 WowPorn.17.12.28.Aislin.And.Eveline.Dellai.Be.My.Slave.XXX.2160p.MP4-KTR
2017-12-28 07:15:51 FemJoy.com_17.12.28.Sapphira.I.Love.Your.Smile.XXX.IMAGESET-FuGLi
2017-12-28 07:17:31 Nubiles.net_17.12.14.Alex.Blake.Please.Me.XXX.IMAGESET-FuGLi
2017-12-28 07:19:14 Nubiles.net_17.12.15.Agatha.Vega.First.Timer.XXX.IMAGESET-FuGLi
2017-12-28 07:20:05 CumPerfection.17.12.28.Cecilia.Scott.Teacher.Training.XXX.1080p.MP4-KTR
2017-12-28 07:20:47 Nubiles.net_17.12.16.Agatha.Vega.Hot.Damn.XXX.IMAGESET-FuGLi
2017-12-28 07:21:09 PascalsSubSluts.17.12.28.Red.Rose.XXX.1080p.MP4-KTR
2017-12-28 07:21:51 Nubiles.net_17.12.16.Alex.Blake.Sexy.Fun.XXX.IMAGESET-FuGLi
2017-12-28 07:23:34 Nubiles.net_17.12.17.Dakota.Bleu.Sweetheart.XXX.IMAGESET-FuGLi
2017-12-28 07:24:35 San_Holo-The_Trip-EP-WEB-2017-TosK
2017-12-28 07:24:41 Nissy-Hocus_Pocus_2-WEB-JP-2017-TosK
2017-12-28 07:24:47 Shuta_Sueyoshi-Jack_In_The_Box-WEB-JP-2017-TosK
2017-12-28 07:24:52 Nubiles.net_17.12.18.Dakota.Bleu.Summer.Love.XXX.IMAGESET-FuGLi
2017-12-28 07:24:59 Generations_From_Exile_Tribe-Best_Generation_(International_Edition)-WEB-JP-2017-TosK
2017-12-28 07:25:04 Apink-Pink_Stories-WEB-JP-2017-TosK
2017-12-28 07:25:08 Silent_Siren-Girls_Power-WEB-JP-2017-TosK
2017-12-28 07:25:13 Glutamine-Eiyuuwa_Konya_Bokutachiga_Tsukuru-WEB-JP-2017-TosK
2017-12-28 07:25:21 M.I.C-M.I.C.-WEB-CN-2017-TosK
2017-12-28 07:25:33 Sdanny_Lee-Animal-WEB-CN-2017-TosK
2017-12-28 07:25:39 VaVa-21_Part_II-WEB-CN-2017-TosK
2017-12-28 07:25:43 Future_Bicycle-Paradise-WEB-CN-2017-TosK
2017-12-28 07:25:49 Victor_Wong-Implication-WEB-CN-2017-TosK
2017-12-28 07:26:00 Nubiles.net_17.12.18.Dakota.Bleu.Teen.Orgasm.XXX.IMAGESET-FuGLi
2017-12-28 07:26:04 Generations_From_Exile_Tribe-Best_Generation-WEB-JP-2017-TosK
2017-12-28 07:27:42 Nubiles.net_17.12.19.Agatha.Vega.Wet.Pussy.XXX.IMAGESET-FuGLi
2017-12-28 07:30:02 Nubiles.net_17.12.19.Kira.Green.Bed.Bunny.XXX.IMAGESET-FuGLi
2017-12-28 07:32:27 Nubiles.net_17.12.19.Olivia.Sweet.Brunette.Babe.XXX.IMAGESET-FuGLi
2017-12-28 07:37:41 Nubiles.net_17.12.20.Lola.Rae.Pussy.Spreads.XXX.IMAGESET-FuGLi
2017-12-28 07:41:01 Nubiles.net_17.12.21.Lola.Rae.Redhead.Cutie.XXX.IMAGESET-FuGLi
2017-12-28 07:43:48 Yanks.17.12.28.Violet.Tells.Us.About.Her.Turn-Ons.XXX.1080p.MP4-KTR
2017-12-28 07:43:56 Nubiles.net_17.12.22.Kira.Green.Naughty.Maid.XXX.IMAGESET-FuGLi
2017-12-28 07:46:25 Nubiles.net_17.12.23.Kira.Green.School.Girl.XXX.IMAGESET-FuGLi
2017-12-28 07:48:52 Nubiles.net_17.12.23.Olivia.Sweet.Sexy.Teen.XXX.IMAGESET-FuGLi
2017-12-28 07:51:08 Nubiles.net_17.12.24.Lola.Rae.Show.Off.XXX.IMAGESET-FuGLi
2017-12-28 07:54:48 Nubiles.net_17.12.25.Carolina.Sweets.Fitness.Fuckers.XXX.IMAGESET-FuGLi
2017-12-28 07:57:11 Nubiles.net_17.12.25.Lola.Rae.Teen.Toys.Her.Pussy.XXX.IMAGESET-FuGLi
2017-12-28 07:59:13 Nubiles.net_17.12.25.Olivia.Sweet.Sweet.Olivia.XXX.IMAGESET-FuGLi
2017-12-28 08:00:55 Nubiles.net_17.12.26.Fedorova.Varya.Legs.Spread.XXX.IMAGESET-FuGLi
2017-12-28 08:02:47 Nubiles.net_17.12.26.Kira.Green.Skin.Tight.XXX.IMAGESET-FuGLi
2017-12-28 08:03:07 Anilos.17.12.28.Elegant.Eve.Elegant.Beauty.XXX.1080p.MP4-KTR
2017-12-28 08:04:25 Nubiles.net_17.12.26.Paris.Devine.Flick.Of.The.Clit.XXX.IMAGESET-FuGLi
2017-12-28 08:04:47 BadTeensPunished.17.12.28.Alex.Blake.Spoiled.Brat.Disciplined.XXX.1080p.MP4-KTR
2017-12-28 08:06:05 Nubiles.17.12.28.Fedorova.Varya.Perky.Tits.XXX.1080p.MP4-KTR
2017-12-28 08:06:48 Nubiles.net_17.12.27.Lia.Amateur.Touch.XXX.IMAGESET-FuGLi
2017-12-28 08:14:59 FisterTwister.17.12.28.Lucia.Denvile.And.Sindy.Raico.XXX.1080p.MP4-KTR
2017-12-28 08:22:44 The.Last.Witch.Hunter.2015.PL.DUAL.2160p.UHD.BluRay.x265-FLAME
2017-12-28 08:36:39 Bullet.Heaven.2.RiP-DARKSiDERS
2017-12-28 08:37:25 Dyana.Moto.RiP-DARKSiDERS
2017-12-28 08:38:12 Murasaki.RiP-DARKSiDERS
2017-12-28 08:40:40 Mix_Mission_2017-Torsten_Kanzler_(SSL)-SAT-28-12-2017-1KING
2017-12-28 08:41:03 Mix_Mission_2017-Sven_Wittekind_(SSL)-SAT-28-12-2017-1KING
2017-12-28 08:41:16 Empire.Earth.3.GOG.CLASSiC-DARKSiDERS
2017-12-28 08:41:19 Mix_Mission_2017-Freulein_P._(SSL)-SAT-28-12-2017-1KING
2017-12-28 08:42:13 Gods.of.Egypt.2016.PLDUB.DUAL.2160p.UHD.BluRay.x265-FLAME
2017-12-28 08:42:17 Black.Ink.Crew.S06E04.A.Thief.Among.Us.720p.HDTV.x264-CRiMSON
2017-12-28 08:42:37 Black.Ink.Crew.S06E04.A.Thief.Among.Us.HDTV.x264-CRiMSON
2017-12-28 08:42:54 Little.Women.Atlanta.S04E03.Big.Little.News.720p.HDTV.x264-CRiMSON
2017-12-28 08:43:24 Wing.Commander.3.Heart.of.the.Tiger.GOG.CLASSiC-DARKSiDERS
2017-12-28 08:46:02 Mix_Mission_2017-Felix_Bernhard_(SSL)-SAT-28-12-2017-1KING
2017-12-28 08:46:40 Geostorm-Turn-Based.Puzzler-DARKSiDERS
2017-12-28 08:49:20 HardTied.17.12.27.Penny.Lay.And.London.River.Pas.De.Deux.XXX.720p.MP4-KTR
2017-12-28 08:49:53 Mix_Mission_2017-GNTN_(SSL)-SAT-28-12-2017-1KING
2017-12-28 09:01:31 MetArtX.17.12.28.Aislin.Morning.XXX.1080p.MP4-KTR
2017-12-28 09:02:31 Mix_Mission_2017-LVNDSCAPE_(SSL)-SAT-28-12-2017-1KING
2017-12-28 09:04:04 BACK.TO.THE.EGG-HI2U
2017-12-28 09:08:50 NaughtyOffice.17.12.28.Karma.RX.XXX.1080p.MP4-KTR
2017-12-28 09:09:52 Little.Women.Atlanta.S04E03.WEB.h264-TBS
2017-12-28 09:09:58 Storage.Wars.Canada.S01E34.WEB.h264-TBS
2017-12-28 09:10:25 Storage.Wars.Canada.S01E35.WEB.h264-TBS
2017-12-28 09:10:36 Storage.Wars.Canada.S01E34.720p.WEB.h264-TBS
2017-12-28 09:10:39 SeducedByACougar.17.12.28.Sofie.Marie.XXX.1080p.MP4-KTR
2017-12-28 09:10:54 Storage.Wars.Canada.S01E35.720p.WEB.h264-TBS
2017-12-28 09:11:21 Vikings.S05E06.1080p.WEB.H264-STRiFE
2017-12-28 09:11:51 MeganRain.17.12.28.Megan.Rain.Naughty.Little.Megan.XXX.1080p.MP4-KTR
2017-12-28 09:14:47 Tengri-Old_Soul-WEB-2017-SFH
2017-12-28 09:15:05 Little.Women.Atlanta.S04E03.Big.Little.News.REPACK.720p.HDTV.x264-CRiMSON
2017-12-28 09:15:17 Nesttax-This_Game-WEB-2017-SFH
2017-12-28 09:15:45 Emre_Cizmeci-Rangers-WEB-2017-SFH
2017-12-28 09:16:02 Mix_Mission_2017-Cheat_Codes_(SSL)-SAT-28-12-2017-1KING
2017-12-28 09:16:21 NaughtyOffice.17.12.28.Karma.RX.XXX.2160p.MP4-KTR
2017-12-28 09:17:31 Little.Women.Atlanta.S04E03.Big.Little.News.HDTV.x264-CRiMSON
2017-12-28 09:17:39 Someone.Release.Knightfall.S01E03.1080p.WEB.h264-alreadythanks
2017-12-28 09:17:45 Someone.Release.Knightfall.S01E04.1080p.WEB.h264-alreadythanks
2017-12-28 09:17:53 Spaceschneider-Naram-WEB-2017-SFH
2017-12-28 09:18:13 Hustler.17.12.28.Haley.Reed.XXX.1080p.MP4-KTR
2017-12-28 09:18:23 David_I-Loneliness_In_The_Crowd-WEB-2017-SFH
2017-12-28 09:19:22 Errotica-Archives.com_17.12.28.Eos.Black.Dress.XXX.iMAGESET-YAPG
2017-12-28 09:20:38 SeducedByACougar.17.12.28.Sofie.Marie.XXX.2160p.MP4-KTR
2017-12-28 09:21:11 MetArt.com_17.12.28.Georgia.Desani.XXX.iMAGESET-YAPG
2017-12-28 09:22:48 WildOnCam.17.12.28.Liv.Revamped.XXX.1080p.MP4-KTR
2017-12-28 09:23:58 JulesJordan.17.12.28.Aidra.Fox.XXX.1080p.MP4-KTR
2017-12-28 09:24:04 MetArt.com_17.12.28.Debora.A.Cirute.XXX.iMAGESET-YAPG
2017-12-28 09:25:52 Mix_Mission_2017-ANOTR_(SSL)-SAT-NFOFIX-26-12-2017-1KING
2017-12-28 09:26:01 Mix_Mission_2017-Distiller_(SSL)-SAT-NFOFIX-26-12-2017-1KING
2017-12-28 09:26:10 Mix_Mission_2017-Gorge_(SSL)-SAT-NFOFIX-26-12-2017-1KING
2017-12-28 09:26:11 UpHerAsshole.17.12.28.Liv.Revamped.XXX.1080p.MP4-KTR
2017-12-28 09:26:23 Mix_Mission_2017-Omegatypez_(SSL)-SAT-NFOFIX-26-12-2017-1KING
2017-12-28 09:26:32 Mix_Mission_2017-Steve_X_(SSL)-SAT-NFOFIX-26-12-2017-1KING
2017-12-28 09:27:02 Moonshiners.S07E07.Pass.the.Juice.HDTV.x264-CRiMSON
2017-12-28 09:27:20 Moonshiners.S07E07.Pass.the.Juice.720p.HDTV.x264-CRiMSON
2017-12-28 09:27:36 MetArt.com_17.12.28.Sabrisse.A.Rimera.XXX.iMAGESET-YAPG
2017-12-28 09:27:42 PornstarPlatinum.17.12.28.Fallon.West.Big.Cock.For.My.Phat.Ass.XXX.1080p.MP4-KTR
2017-12-28 09:29:11 MetArt.com_17.12.28.Jerricka.Elidae.XXX.iMAGESET-YAPG
2017-12-28 09:32:57 Pale-Pale-WEB-2017-ENTiTLED
2017-12-28 09:33:41 Lucifer.S02E01.SPANiSH.WEBRip.x264-FCC
2017-12-28 09:36:11 Lucifer.S02E04.SPANiSH.WEBRip.x264-FCC
2017-12-28 09:36:27 Lucifer.S02E05.SPANiSH.1080p.WEBRip.x264-FCC
2017-12-28 09:37:21 Lucifer.S02E06.SPANiSH.1080p.WEBRip.x264-FCC
2017-12-28 09:37:54 Vikings.S05E06.iNTERNAL.720p.WEB.h264-BAMBOOZLE
2017-12-28 09:38:16 Lucifer.S02E07.SPANiSH.1080p.WEBRip.x264-FCC
2017-12-28 09:39:09 JapanHDV.17.12.28.Rina.Serizawa.XXX.1080p.MP4-TRASHBIN
2017-12-28 09:39:14 Lucifer.S02E07.SPANiSH.WEBRip.x264-FCC
2017-12-28 09:39:58 Lucifer.S02E08.SPANiSH.720p.WEBRip.x264-FCC
2017-12-28 09:40:14 Lucifer.S02E08.SPANiSH.WEBRip.x264-FCC
2017-12-28 09:40:55 BumsBesuch.17.12.28.Bonni.Ryder.XXX.1080p.MP4-KTR
2017-12-28 09:41:30 Masqued-The_Light_in_the_Dark-WEB-2017-ENTiTLED
2017-12-28 09:42:44 Lucifer.S02E11.SPANiSH.1080p.WEBRip.x264-FCC
2017-12-28 09:43:02 Lucifer.S02E11.SPANiSH.720p.WEBRip.x264-FCC
2017-12-28 09:43:53 Lucifer.S02E12.SPANiSH.720p.WEBRip.x264-FCC
2017-12-28 09:44:13 Lucifer.S02E12.SPANiSH.WEBRip.x264-FCC
2017-12-28 09:44:38 VA-Reggae_Beat_Revo-WEB-2017-JAH
2017-12-28 09:48:17 Mix_Mission_2017-AVICII_(SSL)-SAT-28-12-2017-1KING
2017-12-28 09:48:28 Lucifer.S02E17.SPANiSH.WEBRip.x264-FCC
2017-12-28 09:49:12 Lucifer.S02E18.SPANiSH.720p.WEBRip.x264-FCC
2017-12-28 09:49:29 Lucifer.S02E18.SPANiSH.WEBRip.x264-FCC
2017-12-28 09:50:06 Lucifer.S03E01.SPANiSH.720p.WEBRip.x264-FCC
2017-12-28 09:50:57 Lucifer.S03E02.SPANiSH.720p.WEBRip.x264-FCC
2017-12-28 09:51:03 Brzezina.1970.PL.PAL.DVDR-BFHDVD
2017-12-28 09:55:39 Lucifer.S03E07.SPANiSH.1080p.WEBRip.x264-FCC
2017-12-28 09:57:17 Lucifer.S03E08.SPANiSH.WEBRip.x264-FCC
2017-12-28 09:58:18 Lucifer.S03E09.SPANiSH.WEBRip.x264-FCC
2017-12-28 09:59:00 Lucifer.S03E10.SPANiSH.720p.WEBRip.x264-FCC
2017-12-28 10:03:09 Mix_Mission_2017-Stereoact_(SSL)-SAT-28-12-2017-1KING
2017-12-28 10:03:50 Toilette-You_Too_EP-WEB-2017-FURY
2017-12-28 10:04:39 Pat_Gid-Pop_Space-WEB-2017-2FAST4U
2017-12-28 10:05:40 Paolo_Del_Prete-Aetra-WEB-2017-2FAST4U
2017-12-28 10:06:59 Michaela_Jackson_Dj-Love_Is_Here-WEB-2017-2FAST4U
2017-12-28 10:07:43 Hfdt-TheyRe_Due_To_Win-WEB-2017-2FAST4U
2017-12-28 10:08:37 AllOver30.17.12.28.Jade.Allan.XXX.1080p.MP4-KTR
2017-12-28 10:08:47 Do.Piachu.1989.PL.PAL.DVDR-BFHDVD
2017-12-28 10:09:08 Alfonso_Garcia-Everyday_Everynight-WEB-2017-2FAST4U
2017-12-28 10:09:14 AllOver30.17.12.28.Maggie.G.XXX.1080p.MP4-KTR
2017-12-28 10:09:40 Yory-Molecules_EP-WEB-2017-FURY
2017-12-28 10:10:29 Froken.Frimans.Krig.S04E02.SWEDiSH.720p.HDTV.x264-CCCAM
2017-12-28 10:11:38 Monorok-Processor_Boom_EP-WEB-2017-FURY
2017-12-28 10:13:49 Felipe_Pineda-Og_EP-WEB-2017-FURY
2017-12-28 10:14:51 A_Humanoid_Individual-Synergy_EP-WEB-2017-FURY
2017-12-28 10:14:57 Jiang_Man-One_Day_Of_Winter-WEB-CN-2017-TosK
2017-12-28 10:18:28 Liv.Och.Horace.I.Europa.S02E06.SWEDiSH.720p.WEB.h264-SweWR
2017-12-28 10:18:55 The.Salesman.2016.PL.PAL.DVDR-BFHDVD
2017-12-28 10:19:03 El.Juego.De.Gerald.2017.SPANiSH.1080p.WEBRip.x264-FCC
2017-12-28 10:19:58 El.Juego.De.Gerald.2017.SPANiSH.720p.WEBRip.x264-FCC
2017-12-28 10:20:19 Dokumentar.Frank.Sinatra.100.Ar.2015.E02.SWESUB.720p.WEB.h264-SweWR
2017-12-28 10:20:38 El.Juego.De.Gerald.2017.SPANiSH.WEBRip.x264-FCC
2017-12-28 10:21:39 Teenage.Mutant.Ninja.Turtles.Out.of.the.Shadows.2016.2160p.UHD.BluRay.X265-IAMABLE
2017-12-28 10:21:57 Dokumentar.Frank.Sinatra.100.Ar.2015.E01.DiRFIX.SWESUB.720p.WEB.h264-SweWR
2017-12-28 10:24:16 BangBrosClips.17.12.28.Anissa.Kate.XXX.1080p.MP4-KTR
2017-12-28 10:29:15 Algo.En.Que.Creer.S01E03.SPANiSH.1080p.HDTV.x264-FERiCE
2017-12-28 10:29:31 Die.Puppenspieler.S01E01.Aus.dem.Feuer.GERMAN.WS.HDTV.x264-aWake
2017-12-28 10:29:54 Pure-BBW.17.12.28.Crystal.Blue.Has.What.It.Takescrystal.Blue.Crystal.Blue.Has.What.It.Takes.XXX.1080p.MP4-YAPG
2017-12-28 10:30:06 Algo.En.Que.Creer.S01E03.SPANiSH.720p.HDTV.x264-FERiCE
2017-12-28 10:30:10 Algo.En.Qe.Creer.S01E03.SPANiSH.720p.HDTTV.x264-FERiCE
2017-12-28 10:30:56 Die.Puppenspieler.S01E01.Aus.dem.Feuer.GERMAN.WS.720p.HDTV.x264-aWake
2017-12-28 10:31:42 Superstore.S03E03.SPANiSH.HDTV.x264-FERiCE
2017-12-28 10:32:12 Superstore.S03E04.SPANiSH.1080p.HDTV.x264-FERiCE
2017-12-28 10:32:44 Superstore.S03E04.SPANiSH.HDTV.x264-FERiCE
2017-12-28 10:32:59 Pure-BBW.com_17.12.28.Crystal.Blue.Has.What.It.Takescrystal.Blue.Crystal.Blue.Has.What.It.Takes.XXX.iMAGESET-YAPG
2017-12-28 10:36:28 Marshall.2017.1080p.BluRay.x264-GECKOS
2017-12-28 10:36:34 Jodha.Akbar.S01E244.GERMAN.WS.720p.HDTV.x264-aWake
2017-12-28 10:37:19 VA_-_Dance_Beat_Experiment-(3614979479599)-WEB-2017-ZzZz
2017-12-28 10:37:38 Jodha.Akbar.S01E245.GERMAN.WS.HDTV.x264-aWake
2017-12-28 10:43:23 Der.Ingen.Skulle.Tru.At.Nokon.Kunne.Bu.S16E07.NORWEGIAN.720p.WEB.x264-WASTE
2017-12-28 10:44:34 VA_-_Dance_Move_Epitome-(3614979479391)-WEB-2017-ZzZz
2017-12-28 10:44:43 VA-Addicted_2_House_Vol_25_(House_Music_Selection)-(RHCOMP2657B)-WEB-2017-ENSLAVE
2017-12-28 10:47:55 Serena_-_Safari-WEB-2017-ZzZz
2017-12-28 10:51:29 Makbet.1969.PL.iNT.DVDRiP.x264-N0L
2017-12-28 10:54:53 B-Lean-Lean_Mixes_Vol2-WEB-2017-ENRAGED
2017-12-28 10:55:03 Bladee-Working_on_Dying-WEB-2017-ENRAGED
2017-12-28 10:55:15 Macca_Wiles-Disorderly_Conduct-EP-WEB-2017-ENRAGED
2017-12-28 10:55:25 Tino_Muzik-Young_and_Reckless_2-WEB-2017-ENRAGED
2017-12-28 10:55:36 Tupac-The_Underground_Railroad_(A_Hip_Hop_Anthology)-WEB-2017-ENRAGED
2017-12-28 10:55:50 Beelzebub.E06.FRENCH.720p.BluRay.x264-KAZETV
2017-12-28 10:55:56 Beelzebub.E06.SUBFRENCH.720p.BluRay.x264-KAZETV
2017-12-28 10:56:21 Moralnosc.Pani.Dulskiej.1992.PL.iNT.DVDRiP.x264-N0L
2017-12-28 10:56:31 Pique_Dame--Subjectivity-(NOV010)-WEB-2017-dh
2017-12-28 10:57:15 Pique_Dame--Comfortable_Response-(NOV003)-WEB-2017-dh
2017-12-28 10:58:01 Jeff_Swiff--OS008-(OS008)-WEB-2017-dh
2017-12-28 10:59:03 Afrikhana--Rural_Grooves_EP-(3SUG010)-WEB-2017-dh
2017-12-28 11:03:47 Red.Dog.2011.PL.iNT.DVDRiP.x264-N0L
2017-12-28 11:04:42 Vunk_feat_Irina_Rimes_-_Stai_langa_mine-(B074ZTCCK7)-WEB-RO-2017-ZzZz
2017-12-28 11:06:49 VA-Techno_Rytm_3-(DOPPELGAENGERCOMP527)-WEB-2017-ENSLAVE
2017-12-28 11:10:51 VA-Electronic_Items_Pt_6-(RHCOMP2624A)-WEB-2017-ENSLAVE
2017-12-28 11:11:17 Valerian.And.The.City.Of.A.Thousand.Planets.2017.PLDUB.iNT.DVDRiP.x264-N0L
2017-12-28 11:12:23 The_Real_Mr._Homicide-Secrets_Of_An_Assassin-WEB-2012-ESG
2017-12-28 11:12:50 The_Real_Mr._Homicide-The_Ascension-WEB-2017-ESG
2017-12-28 11:12:56 Papadag.S01E06.DUTCH.720p.HDTV.x264-DTOD
2017-12-28 11:13:35 The_Real_Mr._Homicide-The_Best_Of_The_Real_Mr._Homicide-WEB-2016-ESG
2017-12-28 11:17:35 Dan_Rubell-Shabono-(10127658)-WEB-2017-DJ
2017-12-28 11:18:11 Lexx_Raw-Nulladiessinelinea-(4AR120)-WEB-2017-DJ
2017-12-28 11:18:34 Schelmanoff_and_8_Hertz-White_Butterfly-(IMR0048)-WEB-2017-DJ
2017-12-28 11:22:01 JesseLoadsMonsterFacials.17.12.28.Nia.Nacci.XXX.1080p.MP4-KTR
2017-12-28 11:22:09 Kojak-Open_Up-Reissue-VLS-199x-NOiR
2017-12-28 11:24:51 VA-The_Sound_Of_Electronica_Vol_07-(LWSOE07)-WEB-2017-ENSLAVE
2017-12-28 11:26:12 Manhunt.Unabomber.S01E01.1080p.BluRay.x264-SHORTBREHD
2017-12-28 11:26:52 Chrom-Electroscope-CD-FLAC-2010-FWYH
2017-12-28 11:28:37 Manhunt.Unabomber.S01E02.1080p.BluRay.x264-SHORTBREHD
2017-12-28 11:29:00 Chrom-Peak_And_Decay-Deluxe_Edition-2CD-FLAC-2016-FWYH
2017-12-28 11:30:30 VA_-_Dance_To_The_Rhythm_Style-(3614979479575)-WEB-2017-ZzZz
2017-12-28 11:31:00 Manhunt.Unabomber.S01E03.1080p.BluRay.x264-SHORTBREHD
2017-12-28 11:32:01 Tritonal_-_Tritonia_196__Incl_Noah_Neiman_Guestmix-SAT-12-27-2017-TALiON
2017-12-28 11:32:16 Chrom-Regret_And_Testify-Limited_Edition-CDM-FLAC-2014-FWYH
2017-12-28 11:33:00 R3hab_-_I_Need_R3hab_275-SAT-12-27-2017-TALiON
2017-12-28 11:33:18 The.Wall.US.S02E14.720p.WEB.x264-TBS
2017-12-28 11:33:25 Manhunt.Unabomber.S01E04.1080p.BluRay.x264-SHORTBREHD
2017-12-28 11:33:59 Zeds_Dead_-_Deadbeats_Radio_027-SAT-12-27-2017-TALiON
2017-12-28 11:34:59 Trap_Nation_-_Trap_Nation_Radio_005__Incl_MEMBA_Guestmix-SAT-12-27-2017-TALiON
2017-12-28 11:35:41 VA_-_Dance_To_The_Rhythm_of_The_Beat-(3614979479414)-WEB-2017-ZzZz
2017-12-28 11:35:48 Manhunt.Unabomber.S01E05.1080p.BluRay.x264-SHORTBREHD
2017-12-28 11:36:01 Pretty_Lights_-_tha_Hot_Shit-SAT-12-27-2017-TALiON
2017-12-28 11:37:03 NGHTMRE_and_Slander_-_Gud_Vibrations_Radio_045-SAT-12-27-2017-TALiON
2017-12-28 11:37:18 Los_Pes-4_Strokez-WEB-2017-JAH
2017-12-28 11:37:39 Mekuji_Rasta-3_Warna-WEB-2017-JAH
2017-12-28 11:38:00 Paul_Oakenfold_-_Planet_Perfecto_373-SAT-12-27-2017-TALiON
2017-12-28 11:38:11 Manhunt.Unabomber.S01E06.1080p.BluRay.x264-SHORTBREHD
2017-12-28 11:39:02 Benji_B_-_BBC_Radio1__2017_Mixtape_Part2-SAT-12-28-2017-TALiON
2017-12-28 11:39:10 Papadag.S01E06.DUTCH.1080p.HDTV.x264-DTOD
2017-12-28 11:39:38 McWoner-Nuh_Fire_It_bw_Higher_Region-(JJ096)-Reissue-VLS-2011-NOiR
2017-12-28 11:40:36 Manhunt.Unabomber.S01E07.1080p.BluRay.x264-SHORTBREHD
2017-12-28 11:42:59 Manhunt.Unabomber.S01E08.1080p.BluRay.x264-SHORTBREHD
2017-12-28 11:45:58 Moses_Concas-Strays-WEB-2017-JAH
2017-12-28 11:49:30 InterracialPickups.17.12.28.Hannah.Hays.XXX.1080p.MP4-KTR
2017-12-28 11:58:33 Home.And.Away.S30E220.720p.HDTV.x264-FiHTV
2017-12-28 11:59:40 Home.And.Away.S30E220.HDTV.x264-FiHTV
2017-12-28 12:00:22 Tau-Rine_-_New_Life-(TRNM002)-WEB-2017-MMS
2017-12-28 12:00:23 Mike_Sanders_-_Love_Your_Life-(EGMSIN174)-WEB-2017-MMS
2017-12-28 12:00:31 Madwave_ft._Vanessa_Marchi_-_By_My_Side-(NIX077)-WEB-2017-MMS
2017-12-28 12:00:44 Bigtopo_and_Omar_Diaz_-_Pirineos-(IHU020)-WEB-2017-MMS
2017-12-28 12:00:57 Talisman_-_The_Enlightment-(RDX261)-WEB-2017-MMS
2017-12-28 12:01:19 Betavoice_-_Into_The_Shadows-(XBONE213)-WEB-2017-MMS
2017-12-28 12:01:20 Neilio_ft._Ohwin_-_Feel_So_Alive-(DWX475)-WEB-2017-MMS
2017-12-28 12:01:22 Zatox_-_Rest_In_Peace_(Freaqshow_Anthem_2017)-WEB-2017-MMS
2017-12-28 12:01:38 Empathy_-_Between_Dreams-(OR84)-WEB-2017-MMS
2017-12-28 12:01:42 Ciro_Visone_and_Semper_T._-_A_World_A_Part-(SCR141)-WEB-2017-MMS
2017-12-28 12:01:59 Andretta_-_Pure_(Incl._Edit)-(FSOEUV008)-WEB-2017-MMS
2017-12-28 12:02:01 Andrtta_-_Pure_(Incl._Edit)-(FSOEUV008)-WEB-2017-MMMS
2017-12-28 12:02:04 Dan_Stone_and_Ultimate_-_Enru_(Incl._Edit)-(FSOEF012)-WEB-2017-MMS
2017-12-28 12:02:08 Tom_Exo_-_Skybouncer_(Incl._Edit)-(TRUE058)-WEB-2017-MMS
2017-12-28 12:02:30 Roman_Messer_-_Cosmodrome_(incl._Edit)-(SND143)-WEB-2017-MMS
2017-12-28 12:02:33 Hifalutin-No_Mute_In_Mutiny-WEB-2017-JAH
2017-12-28 12:02:58 Inspector.Barnaby.S02E02.German.DL.FS.DVDRip.x264.iNTERNAL-TVARCHiV
2017-12-28 12:03:18 Paul_Arcane_-_Transcend-(ENPROG303)-WEB-2017-MMS
2017-12-28 12:03:28 Paul_Arcane-Transcend-WEB-2017-AFO
2017-12-28 12:04:59 Inspector.Barnaby.S02E03.German.DL.FS.DVDRip.x264.iNTERNAL-TVARCHiV
2017-12-28 12:05:07 VA-Tech_in_da_House_Vol_8_(A_Fine_Tech_House_Selection)-WEB-2017-ENSLAVE
2017-12-28 12:06:02 Processing_Vessel-Explore_Me-(MOLE057)-WEB-2017-ENSLAVE
2017-12-28 12:06:21 Anaid-Soare-EP-(ARCTIC002)-WEB-2017-ENSLAVE
2017-12-28 12:06:32 Amp_Fiddler-So_Sweet_(Louie_Vega_Remixes)-(VR175)-WEB-2017-ENSLAVE
2017-12-28 12:06:45 Ambala-Calypso_Beach_(The_Remixes)-(ZZZCDS0218)-WEB-2017-ENSLAVE
2017-12-28 12:07:12 Cubik_and_Checo_Zac-Your_Feelings-(LISZT072)-WEB-2017-ENSLAVE
2017-12-28 12:07:14 VA_-_Blue_Soho_Recordings_Best_Of_2017-WEB-2017-MMS
2017-12-28 12:07:35 Ilija_Djokovic-Enigma-(FOA016)-WEB-2017-ENSLAVE
2017-12-28 12:07:44 Meyer-Dawning-(36501441COS)-WEB-2017-ENSLAVE
2017-12-28 12:07:54 Red_Rackem-Place_for_Me__Exhalt-(BERG007)-WEB-2017-ENSLAVE
2017-12-28 12:08:06 Rick_Wade-Depth_Charge-EP-(SB035)-WEB-2017-ENSLAVE
2017-12-28 12:08:16 Robert_Mycer-Caliente_Cabron-(PHR110)-WEB-2017-ENSLAVE
2017-12-28 12:10:16 VA-The_Sound_of_Berlin_Vol_1-(PTTRCOMP267)-WEB-2017-ENSLAVE
2017-12-28 12:10:18 Bars_N_Hooks-The_Next_Generation_the_Ultimate_Collection-BONUS_TRACKS-WEB-2017-ENRAGED
2017-12-28 12:10:27 Bars_N_Hooks-The_Next_Generation_the_Ultimate_Collection_Pt_2-BONUS_TRACKS-WEB-2017-ENRAGED
2017-12-28 12:10:40 Bars_N_Hooks-The_Next_Generation_the_Ultimate_Collection_Pt_3-BONUS_TRACKS-WEB-2017-ENRAGED
2017-12-28 12:10:44 Dousk-Sometimes_Shugga-WEB-2017-AFO
2017-12-28 12:11:18 The_Enlightment_-_Talisman_(Extended_Mix)-(RDX261)-WEB-2017-MMS
2017-12-28 12:14:45 ExploitedCollegeGirls.17.12.28.Becca.And.Cat.Threeway.XXX.720p.MP4-KTR
2017-12-28 12:17:45 Architect_-_Weapons_Of_Choice_EP1-(AERYS030)-WEB-2017-MMS
2017-12-28 12:18:32 VA-Mondo_Records_The_Best_Of_2017-(MNDSM61)-WEB-2017-ENSLAVE
2017-12-28 12:18:46 VA-Best_of_Sofa_Sessions-(SOFACD021)-WEB-2017-ENSLAVE
2017-12-28 12:18:57 VA-Yoshitoshi_Best_of_2017-(YRD049)-WEB-2017-ENSLAVE
2017-12-28 12:19:06 VA-Etude_Electronique_IX-A_French_Way_of_Deep_House-(CITYNOISES165)-WEB-2017-ENSLAVE
2017-12-28 12:19:16 VA-Groove_Nation_2017-(GMCD15)-WEB-2017-ENSLAVE
2017-12-28 12:20:00 VA-Best_of_Motech_2017-(MT112)-WEB-2017-ENSLAVE
2017-12-28 12:20:03 StreetSuckers.17.12.28.Helena.Kramer.Jade.And.Venus.Afrodita.XXX.1080p.MP4-KTR
2017-12-28 12:20:39 Eskai_and_SNR_ft._Evin_Skye_-_Beyond_The_Moon-(STM200)-WEB-2017-MMS
2017-12-28 12:21:42 RAM_-_Dancing_In_The_Moonlight-WEB-2001-iDC
2017-12-28 12:22:48 VA-Best_of_Motech_2017-(MT112)--2017-ENSLAVE
2017-12-28 12:23:06 Matt_Caseli_-_Gonzalos_Guestlist_(Incl._Edit)-(ETR395)-WEB-2017-MMS
2017-12-28 12:23:09 Robert_Burian_-_Nothing_To_Fear_EP-(ETC060)-WEB-2017-MMS
2017-12-28 12:23:12 Lika_Morgan_-_Lady_Marmelade_(Incl._Edits)-(NDF134)-WEB-2017-MMS
2017-12-28 12:23:35 VA-G-House_Masquerades_Vol_1-(HUGHCOMP173)-WEB-2017-ENSLAVE
2017-12-28 12:23:48 VA-Best_of_Techno_2017-(RTCOMP1117A)-WEB-2017-ENSLAVE
2017-12-28 12:23:57 VA-Ace_up_My_Sleeve_Records_2017_(This_is_Techno)-(AUMS2017)-WEB-2017-ENSLAVE
2017-12-28 12:24:37 VA-Year_of_the_Rooster_(Best_of_2017)-(ITV2017)-WEB-2017-ENSLAVE
2017-12-28 12:25:41 Skymaster-Call_from_the_Sky__Infrared_Degree-WEB-2017-AFO
2017-12-28 12:26:39 VA-Spielplatz_Vol_19-Playground_for_Tech-House_Music-(TRETCOMP366)-WEB-2017-ENSLAVE
2017-12-28 12:27:54 VA-Techno_Rytm_4-(DOPPELGAENGERCOMP533)-WEB-2017-ENSLAVE
2017-12-28 12:28:45 Repix_-_Real_Criminals_E.P.-(PR07)-WEB-2017-MMS
2017-12-28 12:29:24 Jetson-One_Pt._2-WEB-2017-AFO
2017-12-28 12:29:28 VA-Electronic_Items_Pt_8-(RHCOMP2684A)-WEB-2017-ENSLAVE
2017-12-28 12:31:30 GAN-La_Muerte-WEB-FR-2017-AZF
2017-12-28 12:31:36 VA-3_Years_of_Crash-(CRASH066)-WEB-2017-ENSLAVE
2017-12-28 12:31:59 VA-Jackin_House_Selection-(TNRCOMP253)-WEB-2017-ENSLAVE
2017-12-28 12:33:35 VA-See_The_Sea_Records_Best_Of_2017_Vol_2-(STSBEST03)-WEB-2017-ENSLAVE
2017-12-28 12:33:46 Stephen.King.-.Children.of.the.Corn.2009.COMPLETE.BLURAY.RERiP-OLDHAM
2017-12-28 12:35:14 The.Frankenstein.Chronicles.S02E02.GERMAN.720p.HDTV.x264-WiSHTV
2017-12-28 12:36:13 VA-Arkham_Digital_Best_of_2017-WEB-2017-AFO
2017-12-28 12:36:58 VA-The_Sound_Of_Electronica_Vol_08-(LWSOE08)-WEB-2017-ENSLAVE
2017-12-28 12:37:17 VA-Berlin_Techno_Essentials_Vol_02-(LWBTE02)-WEB-2017-ENSLAVE
2017-12-28 12:38:20 Doctor.Who.S10E08.GERMAN.720p.HDTV.x264.INTERNAL-ACED
2017-12-28 12:39:58 Doctor.Who.S10E09.GERMAN.720p.HDTV.x264.INTERNAL-ACED
2017-12-28 12:40:08 Dark_Headz_-_Rippin_and_Shakin_(Original_Mix)-(STB0071801)-WEB-2017-ZzZz
2017-12-28 12:40:44 Doctor.Who.S10E09.GERMAN.HDTV.x264.INTERNAL-ACED
2017-12-28 12:42:46 VA-Glasgow_Underground_2017-(GU2179)-WEB-2017-ENSLAVE
2017-12-28 12:47:41 Happy.2017.S01E04.1080p.WEB.x264-TBS
2017-12-28 12:48:28 Catfish.The.TV.Show.S07E00.To.Catch.a.Catfish.WEB.x264-TBS
2017-12-28 12:48:49 Bionikl_-_Drop_Me-(CAT62498)-WEB-2017-ZzZz_iNT
2017-12-28 12:49:01 Airwaves-Biomechanical-(SEIZEXXXII)-WEB-2017-ENSLAVE
2017-12-28 12:49:07 planetarian.the.reverie.of.a.little.planet-DARKSiDERS
2017-12-28 12:49:14 Catfish.The.TV.Show.S07E00.To.Catch.a.Catfish.720p.WEB.x264-TBS
2017-12-28 12:49:16 Antonio_Rossini-With_My_Microphone-(FMR066)-WEB-2017-ENSLAVE
2017-12-28 12:49:24 Buccaneers-Live_My_Life-(BLR010)-WEB-2017-ENSLAVE
2017-12-28 12:49:33 Legit_Trip-303-(BSSM03)-WEB-2017-ENSLAVE
2017-12-28 12:49:35 Camilla_Pisani-Verneshot-(EXTRAOVQ001)-WEB-2017-ENSLAVE
2017-12-28 12:49:44 Carsten_Keller-Totemic-(CLSRM008)-WEB-2017-ENSLAVE
2017-12-28 12:49:54 Subsurface.Circular.x64-DARKSiDERS
2017-12-28 12:49:55 Marc_Houle-Sinister_Mind_Remixes-(IT038)-WEB-2017-ENSLAVE
2017-12-28 12:49:58 Jazzatron-Futureless-(DCUK041)-WEB-2017-ENSLAVE
2017-12-28 12:50:09 Igor_Gonya-Make_Me_H-EP-(FTF010)-WEB-2017-ENSLAVE
2017-12-28 12:50:10 Kevin_Wesp-Breathe-(SPRCH001)-WEB-2017-ENSLAVE
2017-12-28 12:50:17 Mausio-Censored-(NSR34)-WEB-2017-ENSLAVE
2017-12-28 12:50:26 VA-Concept_Part_5-EP-(MFFMUSIC028)-WEB-2017-ENSLAVE
2017-12-28 12:50:32 Pain-Acid-(NPLANET007)-WEB-2017-ENSLAVE
2017-12-28 12:50:34 Black.Ink.Crew.S06E04.1080p.WEB.x264-TBS
2017-12-28 12:50:42 Roberto_Palmero-This_No_(Remixes)-(KSS01695)-WEB-2017-ENSLAVE
2017-12-28 12:50:54 Silent_Sounds-Floating_Dreams-(AB27FD)-WEB-2017-ENSLAVE
2017-12-28 12:50:57 SegG_and_Dator-Crazy-EP-(MKRM064)-WEB-2017-ENSLAVE
2017-12-28 12:51:11 Tha_Audio_Unit-VIBESS_(Reverse_Edition)-BONUS_TRACKS-WEB-2017-ENSLAVE
2017-12-28 12:51:13 Gregor_Tresher_and_Petar_Dundov-Stellarius-(GTO001)-WEB-2017-ENSLAVE
2017-12-28 12:51:16 Tiger_Stripes-Song_for_Edit__Consecration_(Remixes)-(KNG728)-WEB-2017-ENSLAVE
2017-12-28 12:51:29 Wipe_the_Needle_and_Gary_Bardouille-Love_Warriors-(SUS029)-WEB-2017-ENSLAVE
2017-12-28 12:51:43 Whey_Baq-303-(ASIX015)-WEB-2014-ENSLAVE
2017-12-28 12:53:04 Happy.2017.S01E04.iNTERNAL.720p.WEB.x264-BAMBOOZLE
2017-12-28 12:58:29 Azax_-_Jawarty-(BTRDR479)-WEB-2017-BarGhest
2017-12-28 12:58:37 Life_Extension_-_Emotion_(Talamasca_Remix)-(ENT007B)-WEB-2017-BarGhest_INT
2017-12-28 12:59:02 Daniel_Vas_-_Electric_(Remix)-(PL097)-WEB-2017-ZzZz
2017-12-28 13:00:03 VA-Suanda_Music_Radio_Top_20_2017-WEB-2017-AFO
2017-12-28 13:01:34 Dmitry_Hertz_-_Radio_Mix_Vol_1-(SW098)-WEB-2017-ZzZz
2017-12-28 13:02:49 Doctor.Who.S10E09.German.HDTV.1080p.x264-ARC
2017-12-28 13:03:46 David_Howmall_-_The_Lost_Legacy-(FS332)-WEB-2017-ZzZz
2017-12-28 13:03:56 Cabarza-Acid_Reflux_(Original_Mix)-(NXS001)-WEB-2017-ENSLAVE
2017-12-28 13:04:04 Stereoact_-_Ich_Will_Nur_Tanzen_(The_Remixes)-WEB-DE-2017-MMS
2017-12-28 13:04:07 Cassulle-Acid_Toast-(TDL007)-WEB-2017-ENSLAVE
2017-12-28 13:04:18 Coqui_Villalobos-Spy_In_My_House-(DDD005CV)-WEB-2017-ENSLAVE
2017-12-28 13:04:26 Adolphe_Dominguez-Amitie-WEB-FR-2017-AZF
2017-12-28 13:04:38 David_Morales_and_Janice_Robinson-Father-(DMM023)-WEB-2017-ENSLAVE
2017-12-28 13:05:01 Shirley_Jones-Nights_Over_Egypt-(LDR042)-WEB-2017-ENSLAVE
2017-12-28 13:06:59 Schwarz_and_Funk-One_Night-WEB-2017-ENSLAVE
2017-12-28 13:07:01 Lio_Q-A_Non_Domino-WEB-2017-AFO
2017-12-28 13:07:02 Terence_Toy_Modesti_and_Cardona_featuring_Jon_Mykal-Rollin_(Papa_Was_A_Rolling_Stone)-(VR104)-WEB-2017-ENSLAVE
2017-12-28 13:07:03 VA-Repopulate_Stars_Pt_2-(RPM025)-WEB-2017-ENSLAVE
2017-12-28 13:07:11 2raumwohnung_and_Dieter_Meier-Bonjour_Cherie_(Edit)-(ITS204SX)-WEB-2017-ENSLAVE
2017-12-28 13:07:12 Diego_Straube-Reflects-(RR192)-WEB-2017-ENSLAVE
2017-12-28 13:07:13 Vegim-Disrepair-(KSQ053)-WEB-2017-ENSLAVE
2017-12-28 13:07:15 Westcoast_Goddess-Springtime_Forever-(OM019)-WEB-2017-ENSLAVE
2017-12-28 13:07:33 DJ_Sub_Zero_and_UNOMAS_ft._Mannywellz_-_Better_Together-(TBM308B)-WEB-2017-MMS
2017-12-28 13:08:30 Phonic_Scoupe-Guarana__Gingko-WEB-2017-AFO
2017-12-28 13:09:23 Fenix_feat_Alicia_Madison_-_Satisfied-(SW005)-WEB-2017-ZzZz
2017-12-28 13:09:42 Mix_Mission_2017-Ante_Perry_(SSL)-SAT-28-12-2017-1KING
2017-12-28 13:10:48 Raumakustik_-_Ex_Me_EP_(Incl._Edits)-(TOOL63101Z)-WEB-2017-MMS
2017-12-28 13:11:06 David_Calo-Chronomatic-WEB-2017-AFO
2017-12-28 13:11:43 Mord.ve.Wisbey.CZ-I_KnoW
2017-12-28 13:12:05 Jade_Legend_-_Romania-(633)-WEB-2017-ZzZz
2017-12-28 13:12:07 Apartment.666-ALiAS
2017-12-28 13:13:25 8Nine_Muzique_and_Warren_Deep-Spirit_Awakened-(NOREP0004)-WEB-2017-ENSLAVE
2017-12-28 13:13:34 Francesco_Parla-Broken_Spring-(EINMALIG005)-WEB-2017-ENSLAVE
2017-12-28 13:13:45 Mario_Ochoa-Stranger_Than_Paradise-(AVND307)-WEB-2017-ENSLAVE
2017-12-28 13:13:57 Reset_Robot-Thorn-(WBR017)-WEB-2017-ENSLAVE
2017-12-28 13:14:07 Rony_Breaker_Ft_Brian_Lucas-Weekend_(Kiko_Navarro_Remix)-(TV054)-WEB-2017-ENSLAVE
2017-12-28 13:14:18 Troels_Hammer-The_Tree-(ZZZCDS0234)-WEB-2017-ENSLAVE
2017-12-28 13:15:41 Dr._Zapata-Dolphins-WEB-2017-AFO
2017-12-28 13:15:46 Simioli_and_Benny_Camaro_-_Someone_Else_(Incl._Extended_Mixes)-(JMD443B)-WEB-2017-MMS
2017-12-28 13:18:03 Reset_Robot-Thorn-(WBR017)-WEB-7-ENSLAVE
2017-12-28 13:18:32 Tali_Muss-Rain-WEB-2017-AFO
2017-12-28 13:18:47 Chris_Voro_and_Kayshan-Snake_Riders__Sleep_Is_My_Enemy-(VIMTRONICAAN24)-WEB-2017-ENSLAVE
2017-12-28 13:18:58 Dalholt_and_Langkilde_feat_Demise_Ducha-Disco_Disco-(ZZZCDS0215)-WEB-2017-ENSLAVE
2017-12-28 13:19:09 Jon_Craig_and_Mix_Mode_Feat_Letita-In_The_Deep_End_(Dirty_Secretz_Remix)-(POLIS071EP1)-WEB-2017-ENSLAVE
2017-12-28 13:19:25 Robbie_Rivera_-_Im_So_Addictive_(Incl._Edits)-(JMD444B)-WEB-2017-MMS
2017-12-28 13:19:31 Shosho-Tale_of_Moon_and_the_Sun-(TRAPEZLTD173)-WEB-2017-ENSLAVE
2017-12-28 13:20:28 Artist_0001-Unknown_Artist_Series_1-(MOD005)-WEB-2017-ENSLAVE
2017-12-28 13:21:13 Breathe.2017.COMPLETE.BLURAY-LAZERS
2017-12-28 13:22:26 DJ_Victor_-_Glory-(SPR0040)-WEB-2017-ZzZz
2017-12-28 13:23:01 Dalholt_and_Langkilde_feat_DemiDucha-Disco_Disco-(ZZZCDS0215215)-WEB-2017-ENSLAVE
2017-12-28 13:23:29 Anstandslos_und_Durchgeknallt_-_Kokain_(Radio_Version)-WEB-DE-2017-MMS
2017-12-28 13:24:07 Edith_Piaf-Edith_Piaf_1953-1958_(Remastered_2017)-WEB-FR-2017-AZF
2017-12-28 13:24:35 David_Richards_-_Shine-(DR125)-WEB-2017-ZzZz_iNT
2017-12-28 13:26:20 Il.Corriere.Della.Sera.12.28.2017.iTALiAN.RETAiL.eBook-DiVER
2017-12-28 13:27:42 Mononoid-Avoidless-WEB-2017-AFO
2017-12-28 13:28:47 Bitch.2017.COMPLETE.BLURAY-LAZERS
2017-12-28 13:29:32 William_Kirkpatrick-Solace-WEB-2017-AFO
2017-12-28 13:31:19 Skylanders_Imaginators_USA_MULTi10_WiiU-PUSSYCAT
2017-12-28 13:35:15 Alpha_and_Omega-One_by_One-WEB-2017-ENTiTLED
2017-12-28 13:35:27 Atomic_Hero-Years-WEB-2017-ENTiTLED
2017-12-28 13:35:39 Brad_Dolley-Tales_Live_On-WEB-2017-ENTiTLED
2017-12-28 13:35:48 Daniel_Pemberton-Black_Mirror_USS_Callister_(Original_Soundtrack)-WEB-2017-ENTiTLED
2017-12-28 13:35:59 Haunt-Luminous_Eyes-EP-WEB-2017-ENTiTLED
2017-12-28 13:36:09 Jay_Katana-Brighter_Than_Your_Future-EP-WEB-2017-ENTiTLED
2017-12-28 13:36:21 Nik_Nocturnal-Undying_Shadow-WEB-2017-ENTiTLED
2017-12-28 13:36:32 None-VII-WEB-2017-ENTiTLED
2017-12-28 13:36:43 Of_Serpents-The_Mortuary_Sessions-WEB-2017-ENTiTLED
2017-12-28 13:36:53 Pukuut-Aqunneqarnerit_Unitsiguk-WEB-GRL-2017-ENTiTLED
2017-12-28 13:37:04 RF7-Day_at_the_Crisis-WEB-2017-ENTiTLED
2017-12-28 13:37:15 SteelFire-Right_By_Our_Side-WEB-2017-ENTiTLED
2017-12-28 13:37:26 T5-Still_Human-WEB-2017-ENTiTLED
2017-12-28 13:37:37 Tania_Zygar-Explode-ALBUM-WEB-2017-ENTiTLED
2017-12-28 13:37:48 The_Animal_In_Me-Helping_Wont_Help-WEB-2017-ENTiTLED
2017-12-28 13:37:58 VA-Samba_and_Glory_Present_Tropical_Breeze-WEB-2017-ENTiTLED
2017-12-28 13:38:54 Mix_Mission_2017-Thomas_Lizzara_(SSL)-SAT-28-12-2017-1KING
2017-12-28 13:39:00 Lu_Luming-Before_its_dark_(Original_TV_series_soundtrack)-WEB-2017-ENTiTLED
2017-12-28 13:43:07 VA-Unlimited_Limits_Vol_34-WEB-2017-AFO
2017-12-28 13:45:10 Shaan_ft._Allan_Eshuijs_-_End_Of_The_World_(Incl._Extended_Mix)-(ZOUK294B)-WEB-2017-MMS
2017-12-28 13:45:17 Alfonso_Muchacho-Stop_What_Youre_Doing-WEB-2017-AFO
2017-12-28 13:46:21 Kalax_-_Feeling_To_The_Top-(CAT173431)-WEB-2017-ZzZz
2017-12-28 13:48:28 Kratz_Sud_-_Training-(DOD00176)-WEB-2017-ZzZz
2017-12-28 13:49:05 A_Sea_of_Silent_Skulls-Death_Wont_Take_Me_Tonight-WEB-2016-ENTiTLED
2017-12-28 13:49:15 A_Sea_of_Silent_Skulls-Reclamation_of_the_Mind-WEB-2017-ENTiTLED
2017-12-28 13:49:26 Black_Death-Black_Death-WEB-1984-ENTiTLED
2017-12-28 13:49:37 Deitus-Acta_Non_Verba-WEB-2016-ENTiTLED
2017-12-28 13:49:48 Eternal_Helcaraxe-Against_All_Odds-WEB-2012-ENTiTLED
2017-12-28 13:49:59 Eternal_Helcaraxe-In_Times_of_Desperation-WEB-2017-ENTiTLED
2017-12-28 13:50:10 Eternal_Helcaraxe-To_Whatever_End-Reinforced-WEB-2016-ENTiTLED
2017-12-28 13:51:00 Stereoact_-_Lockermachen_Durchfedern-WEB-DE-2017-MMS
2017-12-28 13:51:10 Klass.2007.SPANiSH.COMPLETE.BLURAY-COJONUDO
2017-12-28 13:52:08 Tsukipro.The.Animation.E13.FiNAL.SUBFRENCH.1080p.WEBRip.X264-SLEEPINGFOREST
2017-12-28 13:52:24 Osake.wa.Fuufu.ni.Natte.Kara.E13.FiNAL.SUBFRENCH.1080p.WEBRip.X264-SLEEPINGFOREST
2017-12-28 13:54:50 Dat_Adam-Cyber_Rock-EP-WEB-2017-ENTiTLED
2017-12-28 13:54:56 Aci_Krank-Untergrund_Klassika_2-WEB-DE-2017-ENRAGED
2017-12-28 14:01:03 Levi_Roots-BBC_Radio2-DAB-05-09-2017-Gully
2017-12-28 14:01:48 Rebel.in.the.Rye.2017.COMPLETE.BLURAY-LAZERS
2017-12-28 14:02:07 VA-Goodbye_2017_the_Best_of_the_Year-(THCD137)-WEB-2017-ENSLAVE
2017-12-28 14:02:53 Steenrijk.Straatarm.S02E04.DUTCH.720p.HDTV.x264-DTOD
2017-12-28 14:06:39 Mix_Mission_2017-Tocadisco_(SSL)-SAT-28-12-2017-1KING
2017-12-28 14:08:58 Ethernet-Outside_of_Time-WEB-2017-ENSLAVE
2017-12-28 14:09:09 VA-Best_Of_2017-(MM127)-WEB-2017-ENSLAVE
2017-12-28 14:12:25 Huston_Hunter-Naomi_Jones_(Original_Motion_Picture_Soundtrack)-WEB-2017-ENTiTLED
2017-12-28 14:12:35 Olin-Road_to_Happiness-WEB-2017-ENTiTLED
2017-12-28 14:12:47 SOBES-One-WEB-2017-ENTiTLED
2017-12-28 14:19:28 Andreyik-The_Love_of_Fox_(The_Album)-(ST1111)-WEB-2017-ENSLAVE
2017-12-28 14:20:49 VA-No_Artwork_Just_A_Logo_Vol_1-(IRADOCD01)-WEB-2017-ENSLAVE
2017-12-28 14:21:00 VA-No_Artwork_Just_A_Logo_Vol_2-(IRADOCD02)-WEB-2017-ENSLAVE
2017-12-28 14:21:05 Mark.Felt.The.Man.Who.Brought.Down.the.White.House.2017.COMPLETE.BLURAY-LAZERS
2017-12-28 14:21:11 VA-Uto_Karem_presents_BEST_OF_2017-(AGILE088)-WEB-2017-ENSLAVE
2017-12-28 14:21:22 VA-Wildrun_Records_Best_Of_2017-(WLRX01)-WEB-2017-ENSLAVE
2017-12-28 14:22:35 The.Farthest.2017.DiRFiX.PROPER.DOCU.720p.BluRay.x264-YELLOWBiRD
2017-12-28 14:26:01 El.Accidente.S01E05.SPANiSH.720p.HDTV.x264-FERiCE
2017-12-28 14:26:16 Djustin-Voyagers-(LAB160)-WEB-2017-MOHAWK
2017-12-28 14:27:52 Summer_Heart-101-WEB-2017-MOHAWK
2017-12-28 14:29:16 Ejeca-Voyage_So_Far-(EXP012)-WEB-2017-ENSLAVE
2017-12-28 14:29:26 VA-Monkeytown_2017-(MTR080DNL)-WEB-2017-ENSLAVE
2017-12-28 14:29:48 De.Wondere.Wereld.Van.Chriet.Titulaer.2017.DUTCH.720p.HDTV.x264-DTOD
2017-12-28 14:31:07 Devolutions.Password.Vault.Manager.Enterprise.Edition.v4.6.2.0.MACOSX.Incl.Keygen-AMPED
2017-12-28 14:31:22 Devolutions.Remote.Desktop.Manager.Enterprise.Edition.v4.6.2.0.MACOSX.Incl.Keygen-AMPED
2017-12-28 14:31:29 NOS.Journaal.Jaaroverzicht.2017.DUTCH.720p.HDTV.x264-DTOD
2017-12-28 14:34:25 Omair_Mirza-Beautiful_Mystery_(The_Remixes)-(OHMM017)-WEB-2017-ENSLAVE
2017-12-28 14:39:07 Herrschaft.der.Echsen.2017.GERMAN.DOKU.720p.HDTV.x264-RiO
2017-12-28 14:39:24 VA-Moom_Records_3_Years_Va-(MMRVA3Y2017)-WEB-2017-ENSLAVE
2017-12-28 14:39:31 Solid.Angle.Houdini.To.Arnold.v2.2.2.for.Houdini.16.0.736-AMPED
2017-12-28 14:40:03 Herrschaft.der.Echsen.2017.GERMAN.DOKU.HDTV.x264-RiO
2017-12-28 14:40:32 Solid.Angle.Houdini.To.Arnold.v2.2.2.for.Houdini.16.0.736.LINUX-AMPED
2017-12-28 14:40:46 The.Last.Man.On.The.Moon.2014.GERMAN.DOKU.720p.HDTV.x264-RiO
2017-12-28 14:40:50 VA-Best_of_Big_Mamas_House_Records_2017_(Deluxe_Version)-BONUS_TRACKS-(BMD685)-WEB-2017-ENSLAVE
2017-12-28 14:41:32 Verfuehrerisch.und.provokant.Die.Burlesque.Koeniginnen.2015.GERMAN.SUBBED.DOKU.720p.HDTV.x264-RiO
2017-12-28 14:41:33 Solid.Angle.Houdini.To.Arnold.v2.2.2.for.Houdini.16.0.736.MACOSX-AMPED
2017-12-28 14:42:16 Verfuehrerisch.und.provokant.Die.Burlesque.Koeniginnen.2015.GERMAN.SUBBED.DOKU.HDTV.x264-RiO
2017-12-28 14:42:34 Solid.Angle.Houdini.To.Arnold.v2.2.2.for.Houdini.16.5.268-AMPED
2017-12-28 14:42:57 Reign.S04E01.FRENCH.WEBRip.x264-AMB3R
2017-12-28 14:43:02 Workingmans.Death.2005.GERMAN.SUBBED.DOKU.720p.HDTV.x264-RiO
2017-12-28 14:43:23 Reign.S04E02.FRENCH.WEBRip.x264-AMB3R
2017-12-28 14:43:34 Solid.Angle.Houdini.To.Arnold.v2.2.2.for.Houdini.16.5.268.LINUX-AMPED
2017-12-28 14:43:36 Reign.S04E03.FRENCH.WEBRip.x264-AMB3R
2017-12-28 14:43:50 Reign.S04E04.FRENCH.WEBRip.x264-AMB3R
2017-12-28 14:44:08 Reign.S04E05.FRENCH.WEBRip.x264-AMB3R
2017-12-28 14:44:26 Reign.S04E06.FRENCH.WEBRip.x264-AMB3R
2017-12-28 14:44:35 Solid.Angle.Houdini.To.Arnold.v2.2.2.for.Houdini.16.5.268.MACOSX-AMPED
2017-12-28 14:44:42 Reign.S04E07.FRENCH.WEBRip.x264-AMB3R
2017-12-28 14:44:58 Reign.S04E08.FRENCH.WEBRip.x264-AMB3R
2017-12-28 14:45:18 Reign.S04E09.FRENCH.WEBRip.x264-AMB3R
2017-12-28 14:45:38 Solid.Angle.Houdini.To.Arnold.v2.2.2.for.Houdini.16.5.323-AMPED
2017-12-28 14:46:00 Reign.S04E11.FRENCH.WEBRip.x264-AMB3R
2017-12-28 14:46:38 Solid.Angle.Houdini.To.Arnold.v2.2.2.for.Houdini.16.5.323.LINUX-AMPED
2017-12-28 14:46:43 Reign.S04E13.FRENCH.WEBRip.x264-AMB3R
2017-12-28 14:47:15 Reign.S04E14.FRENCH.WEBRip.x264-AMB3R
2017-12-28 14:47:40 Solid.Angle.Houdini.To.Arnold.v2.2.2.for.Houdini.16.5.323.MACOSX-AMPED
2017-12-28 14:47:47 Reign.S04E15.FRENCH.WEBRip.x264-AMB3R
2017-12-28 14:48:27 MC_Kevinho-O_Grave_Bater-SINGLE-WEB-2017-ENRAGED
2017-12-28 14:48:38 MC_Kevinho-Rabiola-SINGLE-WEB-2017-ENRAGED
2017-12-28 14:48:49 Mike_Swagger-After_Dark-WEB-2017-ENRAGED
2017-12-28 14:48:52 Klass.2007.SPANiSH.720p.BluRay.x264-TORO
2017-12-28 14:49:02 Rebel_Phoenix-Blow_The_Spot__Transcendent-SINGLE-WEB-2016-ENRAGED
2017-12-28 14:49:11 Rebel_Phoenix-DMTNT_(Dead_Men_Tell_No_Tales)-WEB-2017-ENRAGED
2017-12-28 14:49:22 Rebel_Phoenix-Documentations_(A_Story_of_Life_and_Death)-WEB-2015-ENRAGED
2017-12-28 14:49:33 Rebel_Phoenix-Never_Die_Part_One-WEB-2016-ENRAGED
2017-12-28 14:49:43 Rebel_Phoenix-The_Jackpot_EP-WEB-2016-ENRAGED
2017-12-28 14:53:06 Spectrasoul-How_We_Live-(ISHCHATCD001)-CD-2017-SPL
2017-12-28 14:53:46 Ares.German.2016.AC3.BDRip.x264-CHECKMATE
2017-12-28 14:54:37 Spectrasoul-How_We_Live-(ISHCHATCD001)-CD-FLAC-2017-SPL
2017-12-28 14:55:25 Auto.Age.Standoff.v1.3-HI2U
2017-12-28 14:56:06 Eurythmics-There_Must_Be_An_Angel-DVDRiP-x264-1985-iMENE_iNT
2017-12-28 14:56:26 Koarse-Eldritch-EP-WEB-2017-ENSLAVE
2017-12-28 14:56:48 VA-Techno_Resources_No7_Year_End_Compilation-(RIMVA1271)-WEB-2017-ENSLAVE
2017-12-28 14:56:59 Yoji_Biomehanika-A_Quarter_Century_Of_Yoji_Biomehanika_Legacy__Early_works_1992-1999-WEB-2017-ENSLAVE
2017-12-28 14:57:09 Yoji_Biomehanika-A_Quarter_Century_Of_Yoji_Biomehanika_The_Era_Of_Tech_Dance_2007-2013-WEB-2017-ENSLAVE
2017-12-28 14:57:20 Yoji_Biomehanika-A_Quarter_Century_Of_Yoji_Biomehanika_The_Era_of_Hard_Dance_2000-2005-WEB-2017-ENSLAVE
2017-12-28 15:01:25 Inspector.Barnaby.S03E02.German.DL.FS.DVDRip.x264.iNTERNAL-TVARCHiV
2017-12-28 15:03:27 Inspector.Barnaby.S03E03.German.DL.FS.DVDRip.x264.iNTERNAL-TVARCHiV
2017-12-28 15:05:19 Tribalizer-Bef-(A65)-WEB-2017-ENSLAVE
2017-12-28 15:05:29 Mix_Mission_2017-Danny_Avila_(SSL)-SAT-28-12-2017-1KING
2017-12-28 15:07:50 WakeUpNFuck.E235.Lolly.Small.XXX.2160p.MP4-BIUK
2017-12-28 15:09:47 John_Williams-Star_Wars_The_Last_Jedi_(Original_Motion_Picture_Soundtrack)-OST-CD-2017-KOPiE
2017-12-28 15:18:53 Group.Sex.2.XXX.DVDRip.x264-CiCXXX
2017-12-28 15:19:30 Jizdni.Rady.IDOS.2018.v1.27.Komplet.CZ.iSO-I_KnoW
2017-12-28 15:20:15 Andy_Kneale-Drive-(BT066)-WEB-2017-ENSLAVE
2017-12-28 15:20:27 Rooteo_and_Mahura-A_Dive_Into_The_Ocean-(LNDKHN007)-WEB-2017-ENSLAVE
2017-12-28 15:20:36 VA-Oh_Baby_I_Like_It_Raw_Vol_1-(OHRC001)-WEB-2013-ENSLAVE
2017-12-28 15:20:49 VA-Oh_Baby_I_Like_It_Raw_Vol_2-(OHRC002)-WEB-2013-ENSLAVE
2017-12-28 15:21:09 VA-Oh_Baby_I_Like_It_Raw_Vol_4-(OHRC004)-WEB-2015-ENSLAVE
2017-12-28 15:21:17 EFL.2017.12.26.Birmingham.City.vs.Norwich.CIty.720p.AHDTV.x264-WaLMaRT
2017-12-28 15:21:21 VA-Oh_Baby_I_Like_It_Raw_Vol_5-(OHRC005)-WEB-2017-ENSLAVE
2017-12-28 15:30:17 Jul-Live_A_Laccorhotels_Arena-DVBS-FR-2017-OND
2017-12-28 15:31:06 EFL.2017.12.26.Brentford.vs.Aston.Villa.720p.AHDTV.x264-WaLMaRT
2017-12-28 15:31:38 Merveille_and_Crosson-Cerulean-LP-(VQLP008)-WEB-2017-ENSLAVE
2017-12-28 15:34:07 Urban_Brainchild_-_House_Party-DAB-12-15-2017-TALiON
2017-12-28 15:34:09 VA-The_Best_50_Drops_of_2017_Part_1-(FAB164)-WEB-2017-ENSLAVE
2017-12-28 15:36:14 Thomas_Gold_-_Fanfare-DAB-12-23-2017-TALiON
2017-12-28 15:37:25 Old-n-Young.17.12.28.Lovenia.Lux.XXX.1080p.MP4-KTR
2017-12-28 15:37:49 DownblouseJerk.17.12.27.Kylie.K.XXX.2160p.MP4-Zsex3i
2017-12-28 15:39:19 Ares.2016.German.1080p.BluRay.x264-CHECKMATE
2017-12-28 15:39:59 FirstTimeAuditions.17.12.28.Scarlett.Mae.Seductive.Scarlett.XXX.1080p.MP4-KTR
2017-12-28 15:45:39 Klass.2007.SPANiSH.BDRip.x264-TORO
2017-12-28 15:49:30 Don.Quijote.von.der.Mancha.German.2015.AC3.BDRip.x264-CHECKMATE
2017-12-28 15:54:57 Sve.Najbolje.2016.CROATiAN.WEBRip.x264-RADiOACTiVE
2017-12-28 15:55:04 Sve.Najbolje.2016.CROATiAN.720p.WEBRip.x264-RADiOACTiVE
2017-12-28 15:58:26 JulesJordan.17.12.28.Aidra.Fox.XXX.2160p.MP4-KTR
2017-12-28 15:59:12 De.Wondere.Wereld.Van.Chriet.Titulaer.2017.DUTCH.1080p.HDTV.x264-DTOD
2017-12-28 16:03:23 Audiostrasse.Special.Series.Essential.Synths.WAV-MASCHiNE
2017-12-28 16:03:40 Dtrdjjoxe-No_Lo_Se_6_7-WEB-2017-POSH
2017-12-28 16:04:21 Carl_Fons-Do_you_hear_that-(KR91)-WEB-2017-ENSLAVE
2017-12-28 16:04:29 Engineering.Samples.Dub.Techno.Essentials.Vol.2.WAV-MASCHiNE
2017-12-28 16:04:52 Cassy-Please_Me-EP-(KWR001)-WEB-2017-ENSLAVE
2017-12-28 16:05:24 Cassy_x_Demuir-Please_Me-Fred_P_Reshape_Project-(KWR002)-WEB-2017-ENSLAVE
2017-12-28 16:05:34 Engineering.Samples.Mainroom.Hysteria.feat.Xanti.MULTiFORMAT-MASCHiNE
2017-12-28 16:05:53 Caveman-Not_Easy_But_Hard-(CAT68396)-WEB-2017-ENSLAVE
2017-12-28 16:06:24 Djelectrocurb-Low_Profile_Pt_1-WEB-2017-ENSLAVE
2017-12-28 16:07:16 The.Farthest.2017.DiRFiX.PROPER.DOCU.1080p.BluRay.x264-YELLOWBiRD
2017-12-28 16:07:26 WiLL_Hassegawa-The_John-EP-(TRXX943)-WEB-2017-ENSLAVE
2017-12-28 16:08:06 Stekle.Lisice.2017.SI.HDTV.x264-RADiOACTiVE
2017-12-28 16:08:12 Stekle.Lisice.2017.SI.720p.HDTV.x264-RADiOACTiVE
2017-12-28 16:09:51 VA-Dancefloor_Invasion-WEB-2017-2FAST4U
2017-12-28 16:11:26 Mix_Mission_2017-Picco_(SSL)-SAT-28-12-2017-1KING
2017-12-28 16:13:35 F600-Subsoil_(Remixes)-(OCCULT005)-WEB-2017-ENSLAVE
2017-12-28 16:13:48 VA-Retro_House_Essentials_Vol_5-(COMPLEX203)-WEB-2017-ENSLAVE
2017-12-28 16:14:03 VA-Retro_House_Essentials_Vol_3-(COMPLEX162)-WEB-2017-ENSLAVE
2017-12-28 16:14:17 VA-Retro_House_Essentials_Vol_2-(COMPLEX152)-WEB-2017-ENSLAVE
2017-12-28 16:15:55 VA-Tribal_Fundamental_Vol_2-(FUND20)-WEB-2017-ENSLAVE
2017-12-28 16:15:56 DJ_La_Touche-Drive_Me_Crazy-WEB-2017-POWPOW
2017-12-28 16:17:00 MomXXX.17.12.28.Amirah.Adara.XXX.1080p.MP4-KTR
2017-12-28 16:17:03 VA_-_EDM_2018-(ZYX_82926-2)-2CD-2017-ZzZz
2017-12-28 16:19:37 VA-The_Best_Of_2017_(New_Year_Compilation)_Pt_2-WEB-2017-SFH
2017-12-28 16:19:58 Waco_Jesus-The_Destruction_Of_Commercial_Scum-CD-FLAC-1999-UTP
2017-12-28 16:21:10 Toby_Toxx-Hard_Rush-(ILI419)-WEB-2017-ENSLAVE
2017-12-28 16:21:21 Toby_Toxx-Intoxxication-(ILI402)-WEB-2017-ENSLAVE
2017-12-28 16:21:32 Toby_Toxx-Tiax_Amphin-(CDR38)-WEB-2016-ENSLAVE
2017-12-28 16:22:46 VA-Uplifting_Trance_Collection_By_Yeiskomp_Records_Vol_32-WEB-2017-SFH
2017-12-28 16:24:26 Lyz_Damon-Unwind-WEB-2017-SFH
2017-12-28 16:25:00 Tom_Pulse_and_Spargo_-_Just_for_You-WEB-2017-MMS
2017-12-28 16:26:46 Kin3Tic-Digital_Sky-WEB-2017-SFH
2017-12-28 16:29:02 VA-Trance_2018-WEB-2017-ENSLAVE
2017-12-28 16:30:45 Asix-Black_Rock-WEB-2017-SFH
2017-12-28 16:31:26 Aquinaee-Ultramarin-WEB-2017-SFH
2017-12-28 16:33:15 BACK.TO.THE.EGG.RIP-SiMPLEX
2017-12-28 16:33:22 Grooveman-Dirty-EP-WEB-2017-ENSLAVE
2017-12-28 16:33:34 Grooveman-Dirty_(Charlie_Fuckin_Destroy_It_Mix)-WEB-2017-ENSLAVE
2017-12-28 16:34:16 Urban_Francis-Love_Tool-WEB-2017-SFH
2017-12-28 16:34:52 Harmakhis-The_Watch-WEB-2017-SFH
2017-12-28 16:35:57 Monster_Mode-Full_Measure-WEB-2017-SFH
2017-12-28 16:36:51 Energetic_X-After_Midnight-WEB-2014-ENSLAVE
2017-12-28 16:37:02 Energetic_X-Strobe_01-WEB-2017-ENSLAVE
2017-12-28 16:37:12 Energetic_X-Strobe_02-WEB-2017-ENSLAVE
2017-12-28 16:37:39 SKIY_-_Dont_You_(Forget_About_Me)-WEB-2017-MMS
2017-12-28 16:39:12 Stan_Clmg-The_Space_Tape-WEB-2017-WRT
2017-12-28 16:40:32 Justin_Point-Inoperative-WEB-2017-SFH
2017-12-28 16:41:31 Cristian_Bergagna-At_The_End_of_The_Alley-WEB-2015-ENTiTLED
2017-12-28 16:41:42 Cristian_Bergagna-Nascentes_Morimur-SINGLE-WEB-2017-ENTiTLED
2017-12-28 16:41:52 Cristian_Bergagna-The_Invasion-EP-WEB-2015-ENTiTLED
2017-12-28 16:42:04 G_C_C_-Outta_Sight_Outta_Mind-WEB-2017-WRT
2017-12-28 16:42:51 Jigante-Infrastructural-WEB-2017-SFH
2017-12-28 16:44:10 JJ_Lin-Message_In_A_Bottle-WEB-CN-2017-TosK
2017-12-28 16:44:31 Charun-Incautious-WEB-2017-SFH
2017-12-28 16:45:48 Oscar_Peterson-All_The_Best-WEB-2017-2FAST4U
2017-12-28 16:47:35 Big_Shaq-Mans_Not_Hot_(The_Remixes)-WEB-2017-AZF
2017-12-28 16:48:49 Plague.Inc.Evolved.Shadow.Plague.v1.15.1.MULTI15-SiMPLEX
2017-12-28 16:48:56 Big_Shaq-Mans_Not_Hot_(Christmas_Edition)-WEB-2017-AZF
2017-12-28 16:49:28 Hirschwell_-_1000_Bilder-WEB-DE-2017-MMS
2017-12-28 16:51:12 Nazi.Bauwerke.Utopie.und.Groessenwahn.S02E06.Japans.Kamikaze-Bomber.GERMAN.DOKU.720p.HDTV.x264-RiO
2017-12-28 16:52:01 Nazi.Bauwerke.Utopie.und.Groessenwahn.S02E06.Japans.Kamikaze-Bomber.GERMAN.DOKU.HDTV.x264-RiO
2017-12-28 16:54:40 Viktor_Mora_-_Apocalipse-(S2R204)-WEB-2017-MMS_INT
2017-12-28 16:58:24 VA-7_Moons-WEB-2017-SFH
2017-12-28 16:59:15 Prisoners.2013.German.DTS.1080p.BluRay.x265-GTF
2017-12-28 17:00:38 Apothecary_Arrow-Inner_Lift-WEB-2017-2FAST4U
2017-12-28 17:02:25 VA-Miami_2018-WEB-2017-SFH
2017-12-28 17:02:35 P-ben-White_Paint_On_The_Floor-EP-(PRRUKD094)-WEB-2018-ENSLAVE
2017-12-28 17:04:59 Mix_Mission_2017-Kyau_And_Albert_(SSL)-SAT-28-12-2017-1KING
2017-12-28 17:07:06 Fang_Wu-Pieces_Of_Me-WEB-CN-2017-TosK
2017-12-28 17:07:26 Lesun-Christ_Is-WEB-2017-WRT
2017-12-28 17:10:15 Amagi.Brilliant.Park.S01E01.1080p.BluRay.x264-ANiHLS
2017-12-28 17:11:29 Sergio_Santini-Love_To_The_Piano-WEB-2017-SFH
2017-12-28 17:13:52 VA-Ihu_Records_-_Best_Of_2017-WEB-2017-SFH
2017-12-28 17:14:50 TORI_-_Ice_and_Flame-(MU00187)-WEB-2017-ZzZz
2017-12-28 17:16:04 Gadboa-Guardian-WEB-2017-SFH
2017-12-28 17:16:51 Don.Quijote.von.der.Mancha.2015.German.720p.BluRay.x264-CHECKMATE
2017-12-28 17:18:16 Frank_Arvonio-No_Love-(RBL105)-WEB-2017-ENSLAVE
2017-12-28 17:18:27 VA-Anniversary_Compilation_Vol_1-(LR19)-WEB-2017-ENSLAVE
2017-12-28 17:19:09 Anselmo_Torres_Neruda-Jazz_Alchemist_Anselmo_Torres_Neruda_EP1-WEB-2017-SFH
2017-12-28 17:20:24 Siene-Galaxy_-_EP-WEB-2017-SFH
2017-12-28 17:21:29 Polder.Tokyo.Heidi.2015.GERMAN.COMPLETE.PAL.DVD9-iNViTE
2017-12-28 17:22:07 DJ_Fernanda_Martins-Kentakee_EP-WEB-2014-FALCON
2017-12-28 17:22:24 DJ_Hammond_And_Acid_Flux-Suffered_Overdose-WEB-2010-FALCON
2017-12-28 17:23:06 VA-Deepwater_Compilation_Vol_II-(OVQVA002)-WEB-2017-ENSLAVE
2017-12-28 17:24:01 DJ_Hammond-Headz_On_The_Wall_Remixes-WEB-2013-FALCON
2017-12-28 17:24:03 Don.Quixote.2015.BDRip.x264-CURSE
2017-12-28 17:24:23 DJ_Hammond-Knock_Yourself_Out-WEB-2012-FALCON
2017-12-28 17:24:51 DJ_Hammond-Morning_Comes_EP-WEB-2010-FALCON
2017-12-28 17:24:58 DJ_Hammond-Rough_EP-WEB-2010-FALCON
2017-12-28 17:25:05 Polder.Tokyo.Heidi.2015.GERMAN.PAL.DVDR-iNViTE
2017-12-28 17:25:58 Dr_Chekill_And_Ganez_The_Terrible-In_March_The_Beers-WEB-2014-FALCON
2017-12-28 17:26:58 Chill_Invaders-Piano_Sundown-WEB-2017-SFH
2017-12-28 17:27:24 Sp4de5_-_Ballad-(CAT172737)-WEB-2017-ZzZz
2017-12-28 17:27:34 Amagi.Brilliant.Park.S01E04.BDRip.x264-ANiHLS
2017-12-28 17:28:34 Ciro_Visone_and_Semper_T_-A_World_A_Part_(Extended_Mix)-WEB-2017-SFH
2017-12-28 17:28:47 Dr_Chekill-Koka-WEB_EP-2017-FALCON
2017-12-28 17:30:21 Jarod-Termine_2017-SINGLE-WEB-FR-2017-sceau
2017-12-28 17:31:19 Ganez_The_Terrible-Raver-WEB-2013-FALCON
2017-12-28 17:32:24 Rasna_-_Acas_EP-(191773976118)-WEB-2017-ZzZz
2017-12-28 17:33:54 Ganez_The_Terrible-Summer-WEB-2012-FALCON
2017-12-28 17:35:27 Ganez_The_Terrible-To_The_Moon-WEB-2014-FALCON
2017-12-28 17:36:20 Willison_Cage-The_Outside_Inn-WEB-2017-WRT
2017-12-28 17:36:22 Ganez_The_Terrible-U_Turn-WEB-2017-FALCON
2017-12-28 17:37:37 Lukas_And_Merlin-Delirium-WEB-2016-FALCON
2017-12-28 17:37:47 Lukas-There_Is_No_Tomorrow_EP-WEB-2015-FALCON
2017-12-28 17:38:03 VA-Berlin-Monday_Morning_Hours_11-(VOLTCOMP622)-WEB-2017-ENSLAVE
2017-12-28 17:38:11 Fresh.Off.the.Boat.S03E16.FRENCH.720p.HDTV.x264-SH0W
2017-12-28 17:38:22 Amagi.Brilliant.Park.S01E07.1080p.BluRay.x264-ANiHLS
2017-12-28 17:38:24 OMAYT_-_We_Are_Perfection-(CAT169275)-WEB-2017-ZzZz
2017-12-28 17:39:03 Psycho_Chok-Cerebral_Response-WEB-2013-FALCON
2017-12-28 17:40:03 Psycho_Chok-Dissection-WEB-2013-FALCON
2017-12-28 17:40:10 Storage.Wars.Northern.Treasures.S01E33.720p.WEB.h264-CookieMonster
2017-12-28 17:40:31 Nik_Denton_-_Freaks_Dont_Sleep_(2017_Rework)-(TBH154)-WEB-2013-ZzZz
2017-12-28 17:41:54 Psycho_Chok-Heartless_Inside_EP-WEB-2012-FALCON
2017-12-28 17:42:17 Storage.Wars.Northern.Treasures.S01E34.720p.WEB.h264-CookieMonster
2017-12-28 17:44:19 Psycho_Chok-Lethal_Injection-WEB-2012-FALCON
2017-12-28 17:44:31 Psycho_Chok-The_Music_Of_The_Damned-WEB-2012-FALCON
2017-12-28 17:44:34 Amagi.Brilliant.Park.S01E08.720p.BluRay.x264-ANiHLS
2017-12-28 17:46:41 Alessandro_De_Tuglie-Painkiller-(BLACKSR087)-WEB-2017-ENSLAVE
2017-12-28 17:46:52 VA-Raw_Moments_Vol_4-Rough_Techno_Sounds-(WASABICOMP309)-WEB-2017-ENSLAVE
2017-12-28 17:46:54 Tilthammer-Becoming_A_Legend_EP-WEB-2014-FALCON
2017-12-28 17:46:59 Storage.Wars.Northern.Treasures.S01E33.WEB.h264-CookieMonster
2017-12-28 17:47:05 VA-Special_Series-(BSN028)-WEB-2014-ENSLAVE
2017-12-28 17:47:24 Tilthammer-Dazed_And_Confused-WEB_EP-2015-FALCON
2017-12-28 17:48:16 EFL.2017.12.26.Burton.Albion.vs.Leeds.United.720p.AHDTV.x264-WaLMaRT
2017-12-28 17:48:57 Tilthammer-Never-WEB-2014-FALCON
2017-12-28 17:49:13 Tilthammer-Touch_Of_Death-WEB-2009-FALCON
2017-12-28 17:49:24 VA-Reflections_2017-WEB-2017-AFO
2017-12-28 17:50:03 Tilthammer-What_Do_You_Want-WEB_EP-2015-FALCON
2017-12-28 17:50:29 VA-Guild_707-WEB-2011-FALCON
2017-12-28 17:54:58 VA-Self_Destruction_EP-WEB-2007-FALCON
2017-12-28 17:55:01 VA-Rich_Cason_Greatest_Hits_Electro_Hip_Hop-WEB-2017-ESG
2017-12-28 17:55:21 Viper_XXL-Gangbang_2-WEB-2004-FALCON
2017-12-28 17:56:56 Viper_XXL-Judgement_Time-WEB-2014-FALCON
2017-12-28 17:58:26 Amagi.Brilliant.Park.S01E11.720p.BluRay.x264-ANiHLS
2017-12-28 18:09:18 Amagi.Brilliant.Park.S01E13.BDRip.x264-ANiHLS
2017-12-28 18:14:10 Death.Coming.v1.0.489.MULTI4-SiMPLEX
2017-12-28 18:14:13 Amagi.Brilliant.Park.OVA.1080p.BluRay.x264-ANiHLS
2017-12-28 18:18:16 Alan.Partridge.Why.When.Where.How.and.Whom.720p.WEB.h264-WEBTUBE
2017-12-28 18:18:18 Alan.Partridge.Why.When.Where.How.and.Whom.WEB.h264-WEBTUBE
2017-12-28 18:18:26 Sara_Liu-Ru_Wo-WEB-CN-2017-TosK
2017-12-28 18:18:29 Arthur.S19E11.720p.WEB.h264-WEBTUBE
2017-12-28 18:18:36 Arthur.S19E11.WEB.h264-WEBTUBE
2017-12-28 18:18:37 Julia_Peng-When_I_Look_Back-WEB-CN-2017-TosK
2017-12-28 18:18:45 Brows.On.Fleek.720p.WEB.h264-WEBTUBE
2017-12-28 18:18:52 Brows.On.Fleek.WEB.h264-WEBTUBE
2017-12-28 18:18:59 Celebrity.Mastermind.S15E01.720p.WEB.h264-WEBTUBE
2017-12-28 18:19:06 Celebrity.Mastermind.S15E01.WEB.h264-WEBTUBE
2017-12-28 18:19:19 Ares.2016.German.720p.BluRay.x264-CHECKMATE
2017-12-28 18:19:28 Stranger.Things.S01E01.2160p.UHD.BluRay.x265-DEPTH
2017-12-28 18:21:30 Stranger.Things.S01E02.2160p.UHD.BluRay.x265-DEPTH
2017-12-28 18:23:01 DUSK.Episode.1.and.2.v1.4.1.RIP-SiMPLEX
2017-12-28 18:23:21 Stranger.Things.S01E03.2160p.UHD.BluRay.x265-DEPTH
2017-12-28 18:24:17 The.Frankenstein.Chronicles.S02E02.GERMAN.DL.1080p.HDTV.h264-WiSHTV
2017-12-28 18:24:58 Stranger.Things.S01E04.2160p.UHD.BluRay.x265-DEPTH
2017-12-28 18:25:57 Stranger.Things.S01E05.2160p.UHD.BluRay.x265-DEPTH
2017-12-28 18:26:59 Stranger.Things.S01E06.2160p.UHD.BluRay.x265-DEPTH
2017-12-28 18:27:51 Stranger.Things.S01E07.2160p.UHD.BluRay.x265-DEPTH
2017-12-28 18:28:35 Stranger.Things.S01E08.2160p.UHD.BluRay.x265-DEPTH
2017-12-28 18:30:15 Amagi.Brilliant.Park.OVA.720p.BluRay.x264-ANiHLS
2017-12-28 18:30:57 Amagi.Brilliant.Park.OVA.BDRip.x264-ANiHLS
2017-12-28 18:32:36 VA-Kontor_Top_Of_The_Clubs_Vol.77-4CD-2017-VOiCE
2017-12-28 18:34:35 Alex_Parker_feat_Misha_Miller_-_Fix_Your_Heart-(B073H1CNVT)-WEB-2017-ZzZz
2017-12-28 18:38:11 Connect-R_feat_Andra_-_Semne-(B076MHJN4T)-WEB-RO-2017-ZzZz
2017-12-28 18:40:12 The.Last.Hope.Trump.vs.Mafia.Remastered.North.Korea-HI2U
2017-12-28 18:40:37 Class.Dismissed.S03E01.720p.WEB.h264-WEBTUBE
2017-12-28 18:40:40 Class.Dismissed.S03E02.720p.WEB.h264-WEBTUBE
2017-12-28 18:40:46 Class.Dismissed.S03E03.720p.WEB.h264-WEBTUBE
2017-12-28 18:40:49 Class.Dismissed.S03E01.WEB.h264-WEBTUBE
2017-12-28 18:40:51 Class.Dismissed.S03E02.WEB.h264-WEBTUBE
2017-12-28 18:40:56 Class.Dismissed.S03E03.WEB.h264-WEBTUBE
2017-12-28 18:41:11 Class.Dismissed.S03E04.720p.WEB.h264-WEBTUBE
2017-12-28 18:41:18 Class.Dismissed.S03E04.WEB.h264-WEBTUBE
2017-12-28 18:41:32 Class.Dismissed.S03E05.720p.WEB.h264-WEBTUBE
2017-12-28 18:41:36 Class.Dismissed.S03E06.WEB.h264-WEBTUBE
2017-12-28 18:41:39 Class.Dismissed.S03E07.720p.WEB.h264-WEBTUBE
2017-12-28 18:41:43 Class.Dismissed.S03E07.WEB.h264-WEBTUBE
2017-12-28 18:41:47 Class.Dismissed.S03E08.720p.WEB.h264-WEBTUBE
2017-12-28 18:41:52 Class.Dismissed.S03E05.WEB.h264-WEBTUBE
2017-12-28 18:41:53 Class.Dismissed.S03E08.WEB.h264-WEBTUBE
2017-12-28 18:42:04 Class.Dismissed.S03E09.720p.WEB.h264-WEBTUBE
2017-12-28 18:42:06 Class.Dismissed.S03E09.WEB.h264-WEBTUBE
2017-12-28 18:42:09 Class.Dismissed.S03E06.720p.WEB.h264-WEBTUBE
2017-12-28 18:42:13 Class.Dismissed.S03E10.720p.WEB.h264-WEBTUBE
2017-12-28 18:42:21 Class.Dismissed.S03E10.WEB.h264-WEBTUBE
2017-12-28 18:42:32 Class.Dismissed.S03E11.720p.WEB.h264-WEBTUBE
2017-12-28 18:42:38 Class.Dismissed.S03E11.WEB.h264-WEBTUBE
2017-12-28 18:43:00 Creeped.Out.S01E05.720p.WEB.h264-WEBTUBE
2017-12-28 18:43:08 Creeped.Out.S01E05.WEB.h264-WEBTUBE
2017-12-28 18:43:15 Creeped.Out.S01E06.720p.WEB.h264-WEBTUBE
2017-12-28 18:43:27 Creeped.Out.S01E06.WEB.h264-WEBTUBE
2017-12-28 18:43:40 David.Suchet.In.the.Footsteps.of.St.Peter.S01E01.720p.WEB.h264-WEBTUBE
2017-12-28 18:43:42 David.Suchet.In.the.Footsteps.of.St.Peter.S01E01.WEB.h264-WEBTUBE
2017-12-28 18:43:45 David.Suchet.In.the.Footsteps.of.St.Peter.S01E02.720p.WEB.h264-WEBTUBE
2017-12-28 18:44:00 David.Suchet.In.the.Footsteps.of.St.Peter.S01E02.WEB.h264-WEBTUBE
2017-12-28 18:44:07 Keo_feat_Alexandra_Ungureanu_-_Cel_mai_frumos_cadou-(B01NCJYDU7)-WEB-RO-2016-ZzZz
2017-12-28 18:44:13 EastEnders.2017.12.25.WEB.h264-WEBTUBE
2017-12-28 18:44:19 EastEnders.2017.12.26.WEB.h264-WEBTUBE
2017-12-28 18:44:29 Got.What.It.Takes.S02E01.720p.WEB.h264-WEBTUBE
2017-12-28 18:44:37 Got.What.It.Takes.S02E01.WEB.h264-WEBTUBE
2017-12-28 18:44:42 Got.What.It.Takes.S02E02.720p.WEB.h264-WEBTUBE
2017-12-28 18:44:46 Got.What.It.Takes.S02E03.720p.WEB.h264-WEBTUBE
2017-12-28 18:44:48 Got.What.It.Takes.S02E04.720p.WEB.h264-WEBTUBE
2017-12-28 18:44:51 Got.What.It.Takes.S02E04.WEB.h264-WEBTUBE
2017-12-28 18:44:55 Got.What.It.Takes.S02E02.WEB.h264-WEBTUBE
2017-12-28 18:45:09 Got.What.It.Takes.S02E03.WEB.h264-WEBTUBE
2017-12-28 18:45:25 Have.I.Got.News.for.You.S54E11.Have.I.Got.2017.News.for.You.720p.WEB.h264-WEBTUBE
2017-12-28 18:45:29 Have.I.Got.News.for.You.S54E11.Have.I.Got.2017.News.for.You.WEB.h264-WEBTUBE
2017-12-28 18:45:37 Invasion.with.Sam.Willis.S01E01.720p.WEB.h264-WEBTUBE
2017-12-28 18:45:43 Invasion.with.Sam.Willis.S01E01.WEB.h264-WEBTUBE
2017-12-28 18:45:47 Invasion.with.Sam.Willis.S01E02.720p.WEB.h264-WEBTUBE
2017-12-28 18:45:58 Invasion.with.Sam.Willis.S01E02.WEB.h264-WEBTUBE
2017-12-28 18:46:03 Invasion.with.Sam.Willis.S01E03.720p.WEB.h264-WEBTUBE
2017-12-28 18:46:04 Invasion.with.Sam.Willis.S01E03.WEB.h264-WEBTUBE
2017-12-28 18:46:23 Meet.the.Author.2017.11.30.Fiona.Mozley.720p.WEB.h264-WEBTUBE
2017-12-28 18:46:30 Meet.the.Author.2017.11.30.Fiona.Mozley.WEB.h264-WEBTUBE
2017-12-28 18:46:35 Meet.the.Author.2017.12.07.Norman.Davies.WEB.h264-WEBTUBE
2017-12-28 18:46:38 Meet.the.Author.2017.12.14.Nick.Harkaway.720p.WEB.h264-WEBTUBE
2017-12-28 18:46:42 Meet.the.Author.2017.12.07.Norman.Davies.720p.WEB.h264-WEBTUBE
2017-12-28 18:46:48 Meet.the.Author.2017.12.21.Ann.Cleves.WEB.h264-WEBTUBE
2017-12-28 18:46:54 Meet.the.Author.2017.12.14.Nick.Harkaway.WEB.h264-WEBTUBE
2017-12-28 18:47:11 Meet.the.Author.2017.12.21.Ann.Cleves.720p.WEB.h264-WEBTUBE
2017-12-28 18:47:20 MR.James.Ghost.Writer.2013.720p.WEB.h264-WEBTUBE
2017-12-28 18:47:29 MR.James.Ghost.Writer.2013.WEB.h264-WEBTUBE
2017-12-28 18:47:36 Oasis.Supersonic.2016.INTERNAL.720p.WEB.h264-WEBTUBE
2017-12-28 18:47:43 Oasis.Supersonic.2016.INTERNAL.WEB.h264-WEBTUBE
2017-12-28 18:47:53 Our.School.S03E13.720p.WEB.h264-WEBTUBE
2017-12-28 18:48:00 Our.School.S03E13.WEB.h264-WEBTUBE
2017-12-28 18:48:02 Our.School.S03E14.WEB.h264-WEBTUBE
2017-12-28 18:48:04 Our.School.S03E15.720p.WEB.h264-WEBTUBE
2017-12-28 18:48:06 Our.School.S03E15.WEB.h264-WEBTUBE
2017-12-28 18:48:07 Our.School.S03E16.720p.WEB.h264-WEBTUBE
2017-12-28 18:48:13 Our.School.S03E16.WEB.h264-WEBTUBE
2017-12-28 18:48:15 Our.School.S03E14.720p.WEB.h264-WEBTUBE
2017-12-28 18:48:41 Royal.Institution.Christmas.Lectures.S51E01.720p.WEB.h264-WEBTUBE
2017-12-28 18:48:43 Royal.Institution.Christmas.Lectures.S51E01.WEB.h264-WEBTUBE
2017-12-28 18:48:54 Royal.Institution.Christmas.Lectures.S51E02.720p.WEB.h264-WEBTUBE
2017-12-28 18:49:02 Royal.Institution.Christmas.Lectures.S51E02.WEB.h264-WEBTUBE
2017-12-28 18:49:21 Strictly.Come.Dancing.S15E20.Week.10.Results.720p.WEB.h264-WEBTUBE
2017-12-28 18:49:29 Strictly.Come.Dancing.S15E20.Week.10.Results.WEB.h264-WEBTUBE
2017-12-28 18:49:30 Strictly.Come.Dancing.S15E21.Week.11.720p.WEB.h264-WEBTUBE
2017-12-28 18:49:31 Strictly.Come.Dancing.S15E21.Week.11.WEB.h264-WEBTUBE
2017-12-28 18:49:35 Strictly.Come.Dancing.S15E22.Week.11.Results.WEB.h264-WEBTUBE
2017-12-28 18:49:37 Strictly.Come.Dancing.S15E23.Week.12.720p.WEB.h264-WEBTUBE
2017-12-28 18:49:49 Strictly.Come.Dancing.S15E22.Week.11.Results.720p.WEB.h264-WEBTUBE
2017-12-28 18:49:57 Strictly.Come.Dancing.S15E24.Week.12.Results.WEB.h264-WEBTUBE
2017-12-28 18:50:01 Strictly.Come.Dancing.S15E25.The.Final.720p.WEB.h264-WEBTUBE
2017-12-28 18:50:17 Strictly.Come.Dancing.S15E23.Week.12.WEB.h264-WEBTUBE
2017-12-28 18:50:21 Strictly.Come.Dancing.S15E25.The.Final.WEB.h264-WEBTUBE
2017-12-28 18:50:27 The.Year.in.Music.2017.720p.WEB.h264-WEBTUBE
2017-12-28 18:50:31 The.Year.in.Music.2017.WEB.h264-WEBTUBE
2017-12-28 18:50:37 Strictly.Come.Dancing.S15E24.Week.12.Results.720p.WEB.h264-WEBTUBE
2017-12-28 18:50:57 Strictly.Come.Dancing.S15E26.Christmas.Special.720p.WEB.h264-WEBTUBE
2017-12-28 18:51:09 Turtle.Eagle.Cheetah.A.Slow.Odyssey.720p.WEB.h264-WEBTUBE
2017-12-28 18:51:15 Turtle.Eagle.Cheetah.A.Slow.Odyssey.WEB.h264-WEBTUBE
2017-12-28 18:51:20 Strictly.Come.Dancing.S15E26.Christmas.Special.WEB.h264-WEBTUBE
2017-12-28 18:51:26 University.Challenge.Christmas.2017.S07E02.720p.WEB.h264-WEBTUBE
2017-12-28 18:51:33 University.Challenge.Christmas.2017.S07E02.WEB.h264-WEBTUBE
2017-12-28 18:51:36 University.Challenge.Christmas.2017.S07E03.720p.WEB.h264-WEBTUBE
2017-12-28 18:51:42 University.Challenge.Christmas.2017.S07E03.WEB.h264-WEBTUBE
2017-12-28 18:52:08 DUSK.Episode.1.and.2.v1.4.1.RIP.MUSIC.ADDON-SiMPLEX
2017-12-28 18:52:28 Bibi_-_Coji_de_portocale_(Cu_aroma_de_Craciun)_(Produced_by_Pink_Elephant)-(B01N0QTO9H)-WEB-RO-2016-ZzZz
2017-12-28 18:55:24 Das.teuerste.Kreuzfahrtschiff.der.Welt.E01.GERMAN.DOKU.720p.HDTV.x264-BTVG
2017-12-28 18:56:25 Das.teuerste.Kreuzfahrtschiff.der.Welt.E01.GERMAN.DOKU.HDTVRiP.x264-BTVG
2017-12-28 18:57:25 Das.teuerste.Kreuzfahrtschiff.der.Welt.E02.GERMAN.DOKU.720p.HDTV.x264-BTVG
2017-12-28 18:57:50 NOS.Journaal.Jaaroverzicht.2017.DUTCH.1080p.HDTV.x264-DTOD
2017-12-28 18:58:58 Feli_-_Acasa-(B075FFXGMV)-WEB-RO-2017-ZzZz
2017-12-28 19:01:12 Mix_Mission_2017-We_Do_Voodoo_(SSL)-SAT-28-12-2017-1KING
2017-12-28 19:02:48 VA-Best_Of_Joyride_Music_Trance_2017-WEB-2017-SFH
2017-12-28 19:07:37 Mix_Mission_2017-Jewelz_And_Sparks_(SSL)-SAT-28-12-2017-1KING
2017-12-28 19:09:53 Sleepers.1996.German.DTS.1080p.BluRay.x265-GTF
2017-12-28 19:12:39 Gangs.of.New.York.2002.REMASTERED.German.DTS.1080p.BluRay.x265-GTF
2017-12-28 19:14:34 Lidia_Buble_-_Camasa-(BLV4180736)-WEB-RO-2017-ZzZz
2017-12-28 19:19:23 Mihail_-_Who_You_Are_EP-(4250117687410)-WEB-RO-2017-ZzZz
2017-12-28 19:21:02 Lommbock.2017.German.DTS.1080p.BluRay.x265-GTF
2017-12-28 19:21:27 Lidia_Buble_feat_Matteo_-_Mi-E_Bine-(BLV2748009)-WEB-RO-2016-ZzZz
2017-12-28 19:22:21 Royal.Institution.Christmas.Lectures.2017.S01E02.Silent.Messages.HDTV.x264-PLUTONiUM
2017-12-28 19:22:28 IKnowThatGirl.com_17.12.26.Kenzie.Kai.He.Shoots.He.Scores.XXX.iMAGESET-YAPG
2017-12-28 19:23:10 ShareMyBF.com_17.12.27.Jaye.Summers.And.Vienna.Black.Busted.Cheater.Gets.Threesome.XXX.iMAGESET-YAPG
2017-12-28 19:24:58 Royal.Institution.Christmas.Lectures.2017.S01E02.Silent.Messages.720p.HDTV.x264-PLUTONiUM
2017-12-28 19:25:21 Lidia_Buble_feat_Amira_-_Le-Am_Spus_Si_Fetelor-(BLV1955830)-WEB-RO-2015-ZzZz
2017-12-28 19:27:43 Salvatore_-_Rippin_Radio-DAB-12-20-2017-TALiON
2017-12-28 19:28:04 The_APX-Electrik_Funk_(Deluxe_Edition)-BONUS_TRACKS-WEB-2017-ESG
2017-12-28 19:28:19 Royal.Institution.Christmas.Lectures.2017.S01E02.Silent.Messages.1080p.HDTV.x264-PLUTONiUM
2017-12-28 19:28:27 6.Below.Verschollen.im.Schnee.2017.German.DTS.BluRay.x265-GTF
2017-12-28 19:28:50 Lidia_Buble_feat_Adrian_Sina_-_Ma_Certi-(BLV2420978)-WEB-RO-2016-ZzZz
2017-12-28 19:29:18 Alexander_Orue_-_Detox-DAB-12-20-2017-TALiON
2017-12-28 19:32:20 Fly_Project_-_Get_Wet_(Da_Phonk_Reggaeton_Mix)-(B075GW96YN)-WEB-2017-ZzZz
2017-12-28 19:37:42 Hippo_Campus-Warm_Glow-WEB-2017-ENTiTLED
2017-12-28 19:40:04 Carlas_Dreams_-_Bere-(BLV4187895)-WEB-RO-2017-ZzZz
2017-12-28 19:40:37 Melih_Kor-Signature_Code-WEB-2017-AFO
2017-12-28 19:41:58 8_Karat_Gold_-_All_Bumm-WEB-DE-2017-KNOWN
2017-12-28 19:41:59 18_Karat_Gold_-_All_Bumm-WEB-DE-2017-KNOWN
2017-12-28 19:48:18 Don.Quixote.2015.1080p.BluRay.x264-CURSE
2017-12-28 19:48:23 VA_-_Sunshine_Live_Die_90er_Vol_4-(uptrax029-2)-2CD-2017-ZzZz
2017-12-28 19:57:04 Inspector.Barnaby.S04E02.German.DL.FS.DVDRip.x264.iNTERNAL-TVARCHiV
2017-12-28 19:57:05 Jizdni.Rady.IDOS.2018.v1.27.Komplet.Czech-rG
2017-12-28 20:03:11 Inspector.Barnaby.S04E05.German.DL.DVDRip.x264-TVARCHiV
2017-12-28 20:03:38 Mix_Mission_2017_-_Charly_Lownoise-SAT-12-28-2017-TALiON
2017-12-28 20:06:02 VA-TUSH_Annual_2017_Compiled_By_D-Formation-WEB-2017-AFO
2017-12-28 20:08:17 Bill.Nye.Saves.the.World.S01E01.DOC.FRENCH.WEB.x264-CiELOS
2017-12-28 20:08:40 Bill.Nye.Saves.the.World.S01E02.DOC.FRENCH.720p.WEB.x264-CiELOS
2017-12-28 20:08:49 Bill.Nye.Saves.the.World.S01E03.DOC.FRENCH.WEB.x264-CiELOS
2017-12-28 20:08:54 Bill.Nye.Saves.the.World.S01E03.DOC.FRENCH.720p.WEB.x264-CiELOS
2017-12-28 20:09:02 Bill.Nye.Saves.the.World.S01E03.DOC.MULTi.1080p.WEB.x264-CiELOS
2017-12-28 20:09:23 Bill.Nye.Saves.the.World.S01E04.DOC.FRENCH.WEB.x264-CiELOS
2017-12-28 20:09:27 Bill.Nye.Saves.the.World.S01E04.DOC.FRENCH.720p.WEB.x264-CiELOS
2017-12-28 20:09:33 Bill.Nye.Saves.the.World.S01E04.DOC.MULTi.1080p.WEB.x264-CiELOS
2017-12-28 20:09:37 Bill.Nye.Saves.the.World.S01E05.DOC.FRENCH.WEB.x264-CiELOS
2017-12-28 20:09:46 Bill.Nye.Saves.the.World.S01E05.DOC.MULTi.1080p.WEB.x264-CiELOS
2017-12-28 20:10:00 Bill.Nye.Saves.the.World.S01E07.DOC.FRENCH.WEB.x264-CiELOS
2017-12-28 20:10:04 Bill.Nye.Saves.the.World.S01E07.DOC.FRENCH.720p.WEB.x264-CiELOS
2017-12-28 20:10:08 Bill.Nye.Saves.the.World.S01E07.DOC.MULTi.1080p.WEB.x264-CiELOS
2017-12-28 20:10:14 Bill.Nye.Saves.the.World.S01E08.DOC.FRENCH.WEB.x264-CiELOS
2017-12-28 20:10:21 Bill.Nye.Saves.the.World.S01E08.DOC.FRENCH.720p.WEB.x264-CiELOS
2017-12-28 20:10:29 Bill.Nye.Saves.the.World.S01E08.DOC.MULTi.1080p.WEB.x264-CiELOS
2017-12-28 20:10:35 Bill.Nye.Saves.the.World.S01E09.DOC.FRENCH.WEB.x264-CiELOS
2017-12-28 20:10:42 Bill.Nye.Saves.the.World.S01E09.DOC.FRENCH.720p.WEB.x264-CiELOS
2017-12-28 20:10:49 Bill.Nye.Saves.the.World.S01E09.DOC.MULTi.1080p.WEB.x264-CiELOS
2017-12-28 20:10:52 Bill.Nye.Saves.the.World.S01E10.DOC.FRENCH.WEB.x264-CiELOS
2017-12-28 20:11:01 Bill.Nye.Saves.the.World.S01E10.DOC.FRENCH.720p.WEB.x264-CiELOS
2017-12-28 20:11:06 Bill.Nye.Saves.the.World.S01E10.DOC.MULTi.1080p.WEB.x264-CiELOS
2017-12-28 20:11:15 Bill.Nye.Saves.the.World.S01E11.DOC.FRENCH.WEB.x264-CiELOS
2017-12-28 20:11:25 Bill.Nye.Saves.the.World.S01E11.DOC.FRENCH.720p.WEB.x264-CiELOS
2017-12-28 20:11:31 Bill.Nye.Saves.the.World.S01E11.DOC.MULTi.1080p.WEB.x264-CiELOS
2017-12-28 20:11:38 Bill.Nye.Saves.the.World.S01E12.DOC.FRENCH.WEB.x264-CiELOS
2017-12-28 20:11:40 Bill.Nye.Saves.the.World.S01E12.DOC.FRENCH.720p.WEB.x264-CiELOS
2017-12-28 20:11:49 Bill.Nye.Saves.the.World.S01E12.DOC.MULTi.1080p.WEB.x264-CiELOS
2017-12-28 20:11:51 Bill.Nye.Saves.the.World.S01E13.FiNAL.DOC.FRENCH.WEB.x264-CiELOS
2017-12-28 20:11:57 Bill.Nye.Saves.the.World.S01E13.FiNAL.DOC.FRENCH.720p.WEB.x264-CiELOS
2017-12-28 20:12:22 Black.Mirror.S02.Special.White.Christmas.MULTi.1080p.WEB.x264-CiELOS
2017-12-28 20:12:57 Reign.S04E01.FRENCH.720p.WEB.x264-CiELOS
2017-12-28 20:13:35 Reign.S04E02.MULTi.1080p.WEB.x264-CiELOS
2017-12-28 20:14:56 Reign.S04E10.FRENCH.720p.WEB.x264-CiELOS
2017-12-28 20:24:46 VA_-_Zooland_2017-WEB-2017-MMS
2017-12-28 20:25:21 Don.Quixote.2015.720p.BluRay.x264-RUSTED
2017-12-28 20:26:25 Lady.Dynamite.S01E01.SPANiSH.1080p.WEBRip.x264-FCC
2017-12-28 20:26:57 VA_-_Nightcore_2017-WEB-2017-MMS
2017-12-28 20:29:48 Lady.Dnamite.S01E05.SPANiSH.WEBRip.x264-FCC
2017-12-28 20:30:46 Mike_Mago_and_Tiggi_Hawke_-_Dangerous_Behaviour_(Remixes)-(ARDP390B)-WEB-2017-MMS
2017-12-28 20:33:30 Lady.Dynamite.S01E11.SPANiSH.1080p.WEBRip.x264-FCC
2017-12-28 20:34:23 Lady.Dynamite.S01E12.SPANiSH.720p.WEBRip.x264-FCC
2017-12-28 20:38:48 VA_-_Masters_In_The_Mix_Vol._IV-WEB-2017-MMS_INT
2017-12-28 20:40:46 OperationEscort.17.10.06.Riley.Star.XXX.2160p.MP4-Zsex3i
2017-12-28 20:42:39 OperationEscort.17.10.13.Jade.Amber.XXX.2160p.MP4-Zsex3i
2017-12-28 20:44:10 Becky_Hayes_-_BCM_Radio_209__Incl_Dannic_Guestmix-DAB-12-22-2017-TALiON
2017-12-28 20:44:30 OperationEscort.17.10.16.Alex.Blake.XXX.2160p.MP4-Zsex3i
2017-12-28 20:47:59 Once.Upon.a.Time.S06E04.MULTi.1080p.HDTV.x264-SH0W
2017-12-28 20:49:17 ClubSeventeen.17.12.27.Rebecca.Volpetti.XXX.1080p.MP4-Zsex3i
2017-12-28 20:49:48 ClubSeventeen.17.12.28.Marina.K.XXX.1080p.MP4-Zsex3i
2017-12-28 20:50:13 Dizmack-Spectrum-WEB-2017-ENRAGED
2017-12-28 20:50:20 ClubSeventeen.17.12.28.Tiffany.Tatum.XXX.1080p.MP4-Zsex3i
2017-12-28 20:50:21 Teenage.Mutant.Ninja.Turtles.Out.of.the.Shadows.2016.MULTi.2160p.UHD.BluRay.x265-SESKAPiLE
2017-12-28 20:59:06 Beyond.Skyline.2017.German.720p.BluRay.x264-SPiCY
2017-12-28 20:59:43 Beyond.Skyline.German.2017.AC3.BDRip.x264-SPiCY
2017-12-28 21:03:09 The.Lion.Guard.S02E01.FRENCH.720p.HDTV.x264-D4KiD
2017-12-28 21:03:40 Spider_Kitten-Ark_Of_Octofelis-2016-ERP
2017-12-28 21:04:57 The.Lion.Guard.S02E01.FRENCH.HDTV.x264-D4KiD
2017-12-28 21:07:12 Holly.Weed.S01E03.FRENCH.720p.HDTV.x264-SH0W
2017-12-28 21:10:58 The.Lion.Guard.S02E03.FRENCH.720p.HDTV.x264-D4KiD
2017-12-28 21:12:52 The.Lion.Guard.S02E03.FRENCH.HDTV.x264-D4KiD
2017-12-28 21:15:15 Still.Open.All.Hours.S04E01.HDTV.x264-MTB
2017-12-28 21:18:40 Defloration.17.12.28.Anna.Italyanka.Solo.Masturbation.XXX.1080p.MP4-KTR
2017-12-28 21:20:16 DeviceBondage.17.12.28.Krysta.Kaos.XXX.720p.MP4-KTR
2017-12-28 21:21:13 Terra.X.Die.Rettung.Palmyras.GERMAN.DOKU.720p.HDTV.x264-TMSF
2017-12-28 21:22:46 Terra.X.Die.Rettung.Palmyras.GERMAN.DOKU.WS.HDTVRip.x264-TMSF
2017-12-28 21:25:34 Sindjelici.S01E02.SERBiAN.DiRFiX.PDTV.x264-RADiOACTiVE
2017-12-28 21:29:51 The.Lion.Guard.S02E07.FRENCH.720p.HDTV.x264-D4KiD
2017-12-28 21:30:39 Will.S01E09.FRENCH.720p.HDTV.x264-SH0W
2017-12-28 21:31:28 The.Lion.Guard.S02E07.FRENCH.HDTV.x264-D4KiD
2017-12-28 21:33:24 Bonderoevens.Jul.Paa.Kastaniegaarden.2017.DANiSH.720p.HDTV.x264-RCDiVX
2017-12-28 21:34:11 Holly.Weed.S01E04.FRENCH.720p.HDTV.x264-SH0W
2017-12-28 21:34:33 Ohrwert-Fidelis___Blavus-(GREYSCALE03)-WEB-2017-AGITB
2017-12-28 21:36:26 ATKGalleria.17.12.28.Lydia.Black.Toys.XXX.1080p.MP4-KTR
2017-12-28 21:36:57 Beyond.Skyline.2017.German.DL.1080p.BluRay.x264-SPiCY
2017-12-28 21:39:22 The.Lion.Guard.S02E09.FRENCH.720p.HDTV.x264-D4KiD
2017-12-28 21:39:47 ATKGalleria.17.12.28.Skylar.Snow.Masturbation.XXX.1080p.MP4-KTR
2017-12-28 21:41:21 ATKGalleria.17.12.28.Skylar.Snow.Toys.XXX.1080p.MP4-KTR
2017-12-28 21:42:04 Bonderoevens.Jul.Paa.Kastaniegaarden.2017.DANiSH.HDTV.x264-RCDiVX
2017-12-28 21:42:53 ATKHairy.17.12.28.Margaret.Masturbation.XXX.1080p.MP4-KTR
2017-12-28 21:46:14 Heroes.of.The.Long.Road.Home.2017.DOC.FRENCH.720p.HDTV.x264-SH0W
2017-12-28 21:47:31 Heroes.of.The.Long.Road.Home.2017.DOC.FRENCH.HDTV.x264-SH0W
2017-12-28 21:47:33 Ares.3D.2016.DUAL.COMPLETE.BLURAY-CHECKMATE
2017-12-28 21:47:52 Carasel-Progression_(Deluxe)-BONUS_TRACKS-(AFTLP001)-WEB-2017-ENRAGED
2017-12-28 21:55:02 Stereoact-Lockermachen_Durchfedern-2CD-DE-2017-VOiCE
2017-12-28 21:56:04 Ares.2016.German.DL.1080p.BluRay.AVC-CHECKMATE
2017-12-28 21:56:52 Slut.Puppies.11.XXX.720p.WEBRiP.MP4-GUSH
2017-12-28 21:58:15 On.Rusty.Trails.v1.3.0a-OUTLAWS
2017-12-28 21:59:29 On.Rusty.Trails.v1.3.0b.MacOSX-OUTLAWS
2017-12-28 22:00:42 Slaughterday-Nightmare_Vortex-2013-GRAVEWISH
2017-12-28 22:00:50 On.Rusty.Trails.v1.3.0.Linux-OUTLAWS
2017-12-28 22:02:48 The_Spacelords-Water_Planet-2017-GRAVEWISH
2017-12-28 22:03:02 SimplePlanes.v1.7.0.6.MacOSX-OUTLAWS
2017-12-28 22:03:14 Mix_Mission_2017_-_DJ_Distortion-SAT-12-28-2017-TALiON
2017-12-28 22:04:52 Trans-Siberian_Orchestra-Dreams_of_Fireflies_(On_a_Christmas_Night)-EP-2012-GRAVEWISH
2017-12-28 22:05:49 Spider-Man.2.2004.2160p.UHD.BluRay.x265-DEPTH
2017-12-28 22:05:56 Mister_T-The_Return_of_the_Classic-(BUSTED139)-WEB-2017-ENRAGED
2017-12-28 22:06:06 VA-BBP_Remixed-(BBP069)-WEB-2013-ENRAGED
2017-12-28 22:14:49 Don.Quijote.von.der.Mancha.2015.DUAL.COMPLETE.BLURAY-CHECKMATE
2017-12-28 22:14:51 Artisanal_and_Moar-Gamma-(TVDG12)-WEB-2016-ENRAGED
2017-12-28 22:15:03 Coolio-Gangstas_Paradise_(Re-RecordedRe-Mastered_Version)_(Instrumental_Stems)-EP-WEB-2008-ENRAGED
2017-12-28 22:15:13 Morlack-Hypersonic_Freak-(BBP114)-WEB-2015-ENRAGED
2017-12-28 22:15:53 Monkey_Brothers_-_Some_Of_What_U_Got-(GMD469)-WEB-2017-ZzZz
2017-12-28 22:17:27 VA-I_Love_Disco_Volumen_3-3CD-FLAC-2000-EiTheL
2017-12-28 22:19:23 Peppe_Citarella_-_Dont_Forget-(UR_015)-WEB-2017-ZzZz
2017-12-28 22:19:24 Sam.S02E02.FRENCH.720p.HDTV.x264-SH0W
2017-12-28 22:23:48 Don.Quixote.2015.German.DL.1080p.BluRay.AVC-AVC4D
2017-12-28 22:24:15 Las.Chicas.Del.Cable.S01E03.MULTi.1080p.WEBRip.x264-BRiNK
2017-12-28 22:25:32 De.Nationale.Wetenschapsquiz.2017.DUTCH.1080p.HDTV.x264-DTOD
2017-12-28 22:31:18 Las.Chicas.Del.Cable.S01E07.MULTi.1080p.WEBRip.x264-BRiNK
2017-12-28 22:32:31 Las.Chicas.Del.Cable.S01E08.FiNAL.MULTi.1080p.WEBRip.x264-BRiNK
2017-12-28 22:34:06 Pugs_Atomz-Bama_Pi-(TDR13005)-WEB-2013-ENRAGED
2017-12-28 22:35:20 Las.Chicas.Del.Cable.S02E02.FRENCH.720p.WEBRip.x264-BRiNK
2017-12-28 22:37:09 Las.Chicas.Del.Cable.S02E04.FRENCH.720p.WEBRip.x264-BRiNK
2017-12-28 22:37:27 Ares.3D.2016.German.1080p.BluRay.x264-CHECKMATE
2017-12-28 22:38:53 Las.Chicas.Del.Cable.S02E06.FRENCH.720p.WEBRip.x264-BRiNK
2017-12-28 22:39:49 Las.Chicas.Del.Cable.S02E07.FRENCH.720p.WEBRip.x264-BRiNK
2017-12-28 22:40:40 Las.Chicas.Del.Cable.S02E08.FiNAL.FRENCH.720p.WEBRip.x264-BRiNK
2017-12-28 22:40:41 Blue.Planet.II.S01E01.Een.Oceaan.DUTCH.720p.HDTV.x264-DTOD
2017-12-28 22:40:53 Sindjelici.S01E03.SERBiAN.REAL.PDTV.x264-RADiOACTiVE
2017-12-28 22:41:15 Girlfriends.Guide.to.Divorce.S02E10.REAL.FRENCH.HDTV.x264-AMB3R
2017-12-28 22:47:44 Las.Chicas.Del.Cable.S02E01.MULTi.1080p.WEBRip.x264-BRiNK
2017-12-28 22:49:06 Las.Chicas.Del.Cable.S02E02.MULTi.1080p.WEBRip.x264-BRiNK
2017-12-28 22:51:49 Las.Chicas.Del.Cable.S02E03.MULTi.1080p.WEBRip.x264-BRiNK
2017-12-28 22:55:01 538_Jingle_Ball_2017_-_DJ_Licious_Live-CABLE-12-16-2017-TALiON
2017-12-28 22:57:01 538_Jingle_Ball_2017_-_Lucas_and_Steve_Live-CABLE-12-16-2017-TALiON
2017-12-28 22:58:01 538_Jingle_Ball_2017_-_Afrojack_Live-CABLE-12-16-2017-TALiON
2017-12-28 22:59:01 538_Jingle_Ball_2017_-_Firebeatz_Live-CABLE-12-17-2017-TALiON
2017-12-28 23:00:40 Ares.3D.2016.German.720p.BluRay.x264-CHECKMATE
2017-12-28 23:02:10 Las.Chicas.Del.Cable.S02E08.FiNAL.MULTi.1080p.WEBRip.x264-BRiNK
2017-12-28 23:03:15 Mix_Mission_2017_-_Fernanda_Martins-SAT-12-28-2017-TALiON
2017-12-28 23:03:23 Little.Women.S01E03.1080p.HDTV.H264-MTB
2017-12-28 23:03:47 Istine.I.Lazi.S01E55.SERBiAN.PDTV.x264-RADiOACTiVE
2017-12-28 23:08:07 Girlfriends.Guide.to.Divorce.S02E11.FRENCH.720p.HDTV.x264-SH0W
2017-12-28 23:14:27 Levert-Bloodlline-WEB-1986-ESG_INT
2017-12-28 23:29:38 Gerald_LeVert-Love_And_Consequences-WEB-1998-ESG_INT
2017-12-28 23:30:15 Gerald_Levert-Private_Line-WEB-1991-ESG_INT
2017-12-28 23:31:33 Punta.Escarlata.S01E01.SPANiSH.1080p.BluRay.x264-FERiCE
2017-12-28 23:33:20 Punta.Escarlata.S01E01.SPANiSH.720p.BluRay.x264-FERiCE
2017-12-28 23:33:58 Punta.Escarlata.S01E01.SPANiSH.BDRip.x264-FERiCE
2017-12-28 23:36:02 Punta.Escarlata.S01E02.SPANiSH.1080p.BluRay.x264-FERiCE
2017-12-28 23:40:36 Punta.Escarlata.S01E03.SPANiSH.1080p.BluRay.x264-FERiCE
2017-12-28 23:42:33 Punta.Escarlata.S01E03.SPANiSH.720p.BluRay.x264-FERiCE
2017-12-28 23:46:16 Heroes.of.The.Long.Road.Home.2017.DOC.FRENCH.1080p.HDTV.x264-SH0W
2017-12-28 23:53:20 Floortje.Naar.Het.Einde.Van.De.Wereld.S05E01.DUTCH.720p.HDTV.x264-DTOD